<?xml version="1.0" encoding="UTF-8" standalone="no" ?>
<gpx xmlns="http://www.topografix.com/GPX/1/1" xmlns:xsi="http://www.w3.org/2001/XMLSchema-instance" xsi:schemaLocation="http://www.topografix.com/GPX/1/1 http://www.topografix.com/GPX/1/1/gpx.xsd" version="1.1" creator="VisuGPX - https://www.visugpx.com">
  <metadata>
    <name>Lapugnoy - 29552 - UtagawaVTT.com</name>
  </metadata>
  <trk>
    <name><![CDATA[Lapugnoy - 29552 - UtagawaVTT.com]]></name>
    <trkseg>
      <trkpt lat="50.51452" lon="2.53936">
        <ele>33.449501</ele>
        <time>2009-09-13T18:44:59Z</time>
      </trkpt>
      <trkpt lat="50.51391" lon="2.53832">
        <ele>33</ele>
        <time>2009-09-13T18:44:59Z</time>
      </trkpt>
      <trkpt lat="50.51358" lon="2.53685">
        <ele>33</ele>
        <time>2009-09-13T18:44:59Z</time>
      </trkpt>
      <trkpt lat="50.51337" lon="2.5362">
        <ele>33</ele>
        <time>2009-09-13T18:44:59Z</time>
      </trkpt>
      <trkpt lat="50.51315" lon="2.53538">
        <ele>33.345001</ele>
        <time>2009-09-13T18:44:59Z</time>
      </trkpt>
      <trkpt lat="50.51297" lon="2.53478">
        <ele>33.775917</ele>
        <time>2009-09-13T18:44:59Z</time>
      </trkpt>
      <trkpt lat="50.51273" lon="2.53442">
        <ele>34</ele>
        <time>2009-09-13T18:44:59Z</time>
      </trkpt>
      <trkpt lat="50.51236" lon="2.53435">
        <ele>34.105</ele>
        <time>2009-09-13T18:44:59Z</time>
      </trkpt>
      <trkpt lat="50.51229" lon="2.53408">
        <ele>34.264999</ele>
        <time>2009-09-13T18:44:59Z</time>
      </trkpt>
      <trkpt lat="50.51198" lon="2.53436">
        <ele>34.955002</ele>
        <time>2009-09-13T18:44:59Z</time>
      </trkpt>
      <trkpt lat="50.51159" lon="2.53372">
        <ele>35.313499</ele>
        <time>2009-09-13T18:44:59Z</time>
      </trkpt>
      <trkpt lat="50.51143" lon="2.53321">
        <ele>35.369999</ele>
        <time>2009-09-13T18:44:59Z</time>
      </trkpt>
      <trkpt lat="50.51125" lon="2.53253">
        <ele>36.490002</ele>
        <time>2009-09-13T18:44:59Z</time>
      </trkpt>
      <trkpt lat="50.5111" lon="2.53191">
        <ele>37.849998</ele>
        <time>2009-09-13T18:44:59Z</time>
      </trkpt>
      <trkpt lat="50.51096" lon="2.53138">
        <ele>38.747601</ele>
        <time>2009-09-13T18:44:59Z</time>
      </trkpt>
      <trkpt lat="50.51079" lon="2.53058">
        <ele>38.732426</ele>
        <time>2009-09-13T18:44:59Z</time>
      </trkpt>
      <trkpt lat="50.51039" lon="2.52902">
        <ele>37.181599</ele>
        <time>2009-09-13T18:44:59Z</time>
      </trkpt>
      <trkpt lat="50.51023" lon="2.52819">
        <ele>37.815781</ele>
        <time>2009-09-13T18:44:59Z</time>
      </trkpt>
      <trkpt lat="50.51007" lon="2.52768">
        <ele>38.272499</ele>
        <time>2009-09-13T18:44:59Z</time>
      </trkpt>
      <trkpt lat="50.50971" lon="2.52627">
        <ele>37.845001</ele>
        <time>2009-09-13T18:44:59Z</time>
      </trkpt>
      <trkpt lat="50.50931" lon="2.52613">
        <ele>38.537502</ele>
        <time>2009-09-13T18:44:59Z</time>
      </trkpt>
      <trkpt lat="50.50959" lon="2.52706">
        <ele>39.520111</ele>
        <time>2009-09-13T18:44:59Z</time>
      </trkpt>
      <trkpt lat="50.5099" lon="2.52815">
        <ele>39.23</ele>
        <time>2009-09-13T18:44:59Z</time>
      </trkpt>
      <trkpt lat="50.51023" lon="2.52951">
        <ele>38.907188</ele>
        <time>2009-09-13T18:44:59Z</time>
      </trkpt>
      <trkpt lat="50.51028" lon="2.53009">
        <ele>41.080799</ele>
        <time>2009-09-13T18:44:59Z</time>
      </trkpt>
      <trkpt lat="50.51002" lon="2.53016">
        <ele>43.4473</ele>
        <time>2009-09-13T18:44:59Z</time>
      </trkpt>
      <trkpt lat="50.50991" lon="2.52964">
        <ele>41.865669</ele>
        <time>2009-09-13T18:44:59Z</time>
      </trkpt>
      <trkpt lat="50.50959" lon="2.52938">
        <ele>42.952251</ele>
        <time>2009-09-13T18:44:59Z</time>
      </trkpt>
      <trkpt lat="50.5092" lon="2.52925">
        <ele>45.240913</ele>
        <time>2009-09-13T18:44:59Z</time>
      </trkpt>
      <trkpt lat="50.50883" lon="2.52922">
        <ele>45.993744</ele>
        <time>2009-09-13T18:44:59Z</time>
      </trkpt>
      <trkpt lat="50.50853" lon="2.52941">
        <ele>47.420448</ele>
        <time>2009-09-13T18:44:59Z</time>
      </trkpt>
      <trkpt lat="50.5082" lon="2.52953">
        <ele>49.022999</ele>
        <time>2009-09-13T18:44:59Z</time>
      </trkpt>
      <trkpt lat="50.50791" lon="2.52982">
        <ele>50.285217</ele>
        <time>2009-09-13T18:44:59Z</time>
      </trkpt>
      <trkpt lat="50.50757" lon="2.52983">
        <ele>52.629501</ele>
        <time>2009-09-13T18:44:59Z</time>
      </trkpt>
      <trkpt lat="50.50731" lon="2.52968">
        <ele>55.070801</ele>
        <time>2009-09-13T18:44:59Z</time>
      </trkpt>
      <trkpt lat="50.50691" lon="2.52957">
        <ele>58.597187</ele>
        <time>2009-09-13T18:44:59Z</time>
      </trkpt>
      <trkpt lat="50.50655" lon="2.52939">
        <ele>61.534313</ele>
        <time>2009-09-13T18:44:59Z</time>
      </trkpt>
      <trkpt lat="50.50645" lon="2.52901">
        <ele>62.302502</ele>
        <time>2009-09-13T18:44:59Z</time>
      </trkpt>
      <trkpt lat="50.50655" lon="2.52848">
        <ele>62.997501</ele>
        <time>2009-09-13T18:44:59Z</time>
      </trkpt>
      <trkpt lat="50.50657" lon="2.52798">
        <ele>61.529999</ele>
        <time>2009-09-13T18:44:59Z</time>
      </trkpt>
      <trkpt lat="50.50617" lon="2.52792">
        <ele>62.260002</ele>
        <time>2009-09-13T18:44:59Z</time>
      </trkpt>
      <trkpt lat="50.50572" lon="2.52781">
        <ele>62.04805</ele>
        <time>2009-09-13T18:44:59Z</time>
      </trkpt>
      <trkpt lat="50.50551" lon="2.52818">
        <ele>65.332504</ele>
        <time>2009-09-13T18:44:59Z</time>
      </trkpt>
      <trkpt lat="50.5055" lon="2.52883">
        <ele>68.527527</ele>
        <time>2009-09-13T18:44:59Z</time>
      </trkpt>
      <trkpt lat="50.50555" lon="2.52942">
        <ele>70.501503</ele>
        <time>2009-09-13T18:44:59Z</time>
      </trkpt>
      <trkpt lat="50.50565" lon="2.53003">
        <ele>74.923401</ele>
        <time>2009-09-13T18:44:59Z</time>
      </trkpt>
      <trkpt lat="50.50564" lon="2.53057">
        <ele>78.133499</ele>
        <time>2009-09-13T18:44:59Z</time>
      </trkpt>
      <trkpt lat="50.50532" lon="2.53076">
        <ele>80.343216</ele>
        <time>2009-09-13T18:44:59Z</time>
      </trkpt>
      <trkpt lat="50.50498" lon="2.53092">
        <ele>81.28009</ele>
        <time>2009-09-13T18:44:59Z</time>
      </trkpt>
      <trkpt lat="50.5047" lon="2.53121">
        <ele>81.148003</ele>
        <time>2009-09-13T18:44:59Z</time>
      </trkpt>
      <trkpt lat="50.50442" lon="2.53169">
        <ele>84.507515</ele>
        <time>2009-09-13T18:44:59Z</time>
      </trkpt>
      <trkpt lat="50.50423" lon="2.53269">
        <ele>86.500847</ele>
        <time>2009-09-13T18:44:59Z</time>
      </trkpt>
      <trkpt lat="50.50451" lon="2.53309">
        <ele>81.200798</ele>
        <time>2009-09-13T18:44:59Z</time>
      </trkpt>
      <trkpt lat="50.50475" lon="2.53341">
        <ele>78.149254</ele>
        <time>2009-09-13T18:44:59Z</time>
      </trkpt>
      <trkpt lat="50.50492" lon="2.53412">
        <ele>70.093224</ele>
        <time>2009-09-13T18:44:59Z</time>
      </trkpt>
      <trkpt lat="50.50549" lon="2.5342">
        <ele>67.233185</ele>
        <time>2009-09-13T18:44:59Z</time>
      </trkpt>
      <trkpt lat="50.50584" lon="2.5344">
        <ele>63.404999</ele>
        <time>2009-09-13T18:44:59Z</time>
      </trkpt>
      <trkpt lat="50.50623" lon="2.53469">
        <ele>59.385002</ele>
        <time>2009-09-13T18:44:59Z</time>
      </trkpt>
      <trkpt lat="50.50641" lon="2.53534">
        <ele>60.326374</ele>
        <time>2009-09-13T18:44:59Z</time>
      </trkpt>
      <trkpt lat="50.50676" lon="2.53571">
        <ele>60.601955</ele>
        <time>2009-09-13T18:44:59Z</time>
      </trkpt>
      <trkpt lat="50.50682" lon="2.53624">
        <ele>62.761189</ele>
        <time>2009-09-13T18:44:59Z</time>
      </trkpt>
      <trkpt lat="50.50653" lon="2.53646">
        <ele>66.130104</ele>
        <time>2009-09-13T18:44:59Z</time>
      </trkpt>
      <trkpt lat="50.50621" lon="2.53662">
        <ele>68.648827</ele>
        <time>2009-09-13T18:44:59Z</time>
      </trkpt>
      <trkpt lat="50.5059" lon="2.53699">
        <ele>72.589996</ele>
        <time>2009-09-13T18:44:59Z</time>
      </trkpt>
      <trkpt lat="50.50576" lon="2.53755">
        <ele>75.513725</ele>
        <time>2009-09-13T18:44:59Z</time>
      </trkpt>
      <trkpt lat="50.50557" lon="2.53803">
        <ele>74.753685</ele>
        <time>2009-09-13T18:44:59Z</time>
      </trkpt>
      <trkpt lat="50.50526" lon="2.53778">
        <ele>80.254684</ele>
        <time>2009-09-13T18:44:59Z</time>
      </trkpt>
      <trkpt lat="50.50499" lon="2.53745">
        <ele>81.847</ele>
        <time>2009-09-13T18:44:59Z</time>
      </trkpt>
      <trkpt lat="50.50464" lon="2.53726">
        <ele>83.917107</ele>
        <time>2009-09-13T18:44:59Z</time>
      </trkpt>
      <trkpt lat="50.50425" lon="2.53748">
        <ele>87.116249</ele>
        <time>2009-09-13T18:44:59Z</time>
      </trkpt>
      <trkpt lat="50.50384" lon="2.53752">
        <ele>88.767525</ele>
        <time>2009-09-13T18:44:59Z</time>
      </trkpt>
      <trkpt lat="50.50348" lon="2.53749">
        <ele>88.277695</ele>
        <time>2009-09-13T18:44:59Z</time>
      </trkpt>
      <trkpt lat="50.50316" lon="2.5377">
        <ele>88.486427</ele>
        <time>2009-09-13T18:44:59Z</time>
      </trkpt>
      <trkpt lat="50.5028" lon="2.53801">
        <ele>88.685394</ele>
        <time>2009-09-13T18:44:59Z</time>
      </trkpt>
      <trkpt lat="50.5024" lon="2.53824">
        <ele>89.294998</ele>
        <time>2009-09-13T18:44:59Z</time>
      </trkpt>
      <trkpt lat="50.50253" lon="2.53878">
        <ele>89.004997</ele>
        <time>2009-09-13T18:44:59Z</time>
      </trkpt>
      <trkpt lat="50.50258" lon="2.53952">
        <ele>89</ele>
        <time>2009-09-13T18:44:59Z</time>
      </trkpt>
      <trkpt lat="50.50274" lon="2.54013">
        <ele>89</ele>
        <time>2009-09-13T18:44:59Z</time>
      </trkpt>
      <trkpt lat="50.50289" lon="2.54066">
        <ele>88.942474</ele>
        <time>2009-09-13T18:44:59Z</time>
      </trkpt>
      <trkpt lat="50.50325" lon="2.54176">
        <ele>88.476929</ele>
        <time>2009-09-13T18:44:59Z</time>
      </trkpt>
      <trkpt lat="50.50343" lon="2.54223">
        <ele>88</ele>
        <time>2009-09-13T18:44:59Z</time>
      </trkpt>
      <trkpt lat="50.50355" lon="2.54274">
        <ele>87.751251</ele>
        <time>2009-09-13T18:44:59Z</time>
      </trkpt>
      <trkpt lat="50.50373" lon="2.54336">
        <ele>86.7425</ele>
        <time>2009-09-13T18:44:59Z</time>
      </trkpt>
      <trkpt lat="50.50391" lon="2.54385">
        <ele>85.408501</ele>
        <time>2009-09-13T18:44:59Z</time>
      </trkpt>
      <trkpt lat="50.50412" lon="2.54416">
        <ele>85.294998</ele>
        <time>2009-09-13T18:44:59Z</time>
      </trkpt>
      <trkpt lat="50.50432" lon="2.54457">
        <ele>85.152214</ele>
        <time>2009-09-13T18:44:59Z</time>
      </trkpt>
      <trkpt lat="50.50456" lon="2.545">
        <ele>84.792404</ele>
        <time>2009-09-13T18:44:59Z</time>
      </trkpt>
      <trkpt lat="50.50513" lon="2.5461">
        <ele>84.997078</ele>
        <time>2009-09-13T18:44:59Z</time>
      </trkpt>
      <trkpt lat="50.50546" lon="2.54661">
        <ele>85</ele>
        <time>2009-09-13T18:44:59Z</time>
      </trkpt>
      <trkpt lat="50.50582" lon="2.547">
        <ele>84.894699</ele>
        <time>2009-09-13T18:44:59Z</time>
      </trkpt>
      <trkpt lat="50.50583" lon="2.54754">
        <ele>84.578102</ele>
        <time>2009-09-13T18:44:59Z</time>
      </trkpt>
      <trkpt lat="50.50558" lon="2.54818">
        <ele>84.028748</ele>
        <time>2009-09-13T18:44:59Z</time>
      </trkpt>
      <trkpt lat="50.50568" lon="2.54873">
        <ele>83.206108</ele>
        <time>2009-09-13T18:44:59Z</time>
      </trkpt>
      <trkpt lat="50.50597" lon="2.54916">
        <ele>81.9375</ele>
        <time>2009-09-13T18:44:59Z</time>
      </trkpt>
      <trkpt lat="50.50622" lon="2.54969">
        <ele>80.853752</ele>
        <time>2009-09-13T18:44:59Z</time>
      </trkpt>
      <trkpt lat="50.50639" lon="2.55014">
        <ele>81.112503</ele>
        <time>2009-09-13T18:44:59Z</time>
      </trkpt>
      <trkpt lat="50.50667" lon="2.55082">
        <ele>80.653725</ele>
        <time>2009-09-13T18:44:59Z</time>
      </trkpt>
      <trkpt lat="50.50687" lon="2.55123">
        <ele>80.19986</ele>
        <time>2009-09-13T18:44:59Z</time>
      </trkpt>
      <trkpt lat="50.50705" lon="2.55178">
        <ele>80</ele>
        <time>2009-09-13T18:44:59Z</time>
      </trkpt>
      <trkpt lat="50.50726" lon="2.55226">
        <ele>80</ele>
        <time>2009-09-13T18:44:59Z</time>
      </trkpt>
      <trkpt lat="50.50784" lon="2.55343">
        <ele>78.688751</ele>
        <time>2009-09-13T18:44:59Z</time>
      </trkpt>
      <trkpt lat="50.50799" lon="2.5539">
        <ele>77.980034</ele>
        <time>2009-09-13T18:44:59Z</time>
      </trkpt>
      <trkpt lat="50.50813" lon="2.55442">
        <ele>77.553825</ele>
        <time>2009-09-13T18:44:59Z</time>
      </trkpt>
      <trkpt lat="50.50771" lon="2.55432">
        <ele>78.675003</ele>
        <time>2009-09-13T18:44:59Z</time>
      </trkpt>
      <trkpt lat="50.50681" lon="2.55437">
        <ele>80</ele>
        <time>2009-09-13T18:44:59Z</time>
      </trkpt>
      <trkpt lat="50.50643" lon="2.55437">
        <ele>80</ele>
        <time>2009-09-13T18:44:59Z</time>
      </trkpt>
      <trkpt lat="50.50592" lon="2.5544">
        <ele>80</ele>
        <time>2009-09-13T18:44:59Z</time>
      </trkpt>
      <trkpt lat="50.50554" lon="2.55444">
        <ele>79.764999</ele>
        <time>2009-09-13T18:44:59Z</time>
      </trkpt>
      <trkpt lat="50.50505" lon="2.5546">
        <ele>78.636589</ele>
        <time>2009-09-13T18:44:59Z</time>
      </trkpt>
      <trkpt lat="50.50496" lon="2.55509">
        <ele>78.055656</ele>
        <time>2009-09-13T18:44:59Z</time>
      </trkpt>
      <trkpt lat="50.50497" lon="2.55566">
        <ele>78.304375</ele>
        <time>2009-09-13T18:44:59Z</time>
      </trkpt>
      <trkpt lat="50.50468" lon="2.55633">
        <ele>77.728485</ele>
        <time>2009-09-13T18:44:59Z</time>
      </trkpt>
      <trkpt lat="50.50454" lon="2.55683">
        <ele>77.670128</ele>
        <time>2009-09-13T18:44:59Z</time>
      </trkpt>
      <trkpt lat="50.50484" lon="2.5566">
        <ele>78.209999</ele>
        <time>2009-09-13T18:44:59Z</time>
      </trkpt>
      <trkpt lat="50.50515" lon="2.5562">
        <ele>78.900002</ele>
        <time>2009-09-13T18:44:59Z</time>
      </trkpt>
      <trkpt lat="50.50546" lon="2.55584">
        <ele>79.081123</ele>
        <time>2009-09-13T18:44:59Z</time>
      </trkpt>
      <trkpt lat="50.50575" lon="2.55556">
        <ele>79.411186</ele>
        <time>2009-09-13T18:44:59Z</time>
      </trkpt>
      <trkpt lat="50.50613" lon="2.55556">
        <ele>78.960899</ele>
        <time>2009-09-13T18:44:59Z</time>
      </trkpt>
      <trkpt lat="50.50655" lon="2.55593">
        <ele>78.017502</ele>
        <time>2009-09-13T18:44:59Z</time>
      </trkpt>
      <trkpt lat="50.50682" lon="2.55642">
        <ele>77.576561</ele>
        <time>2009-09-13T18:44:59Z</time>
      </trkpt>
      <trkpt lat="50.50687" lon="2.55722">
        <ele>77.048103</ele>
        <time>2009-09-13T18:44:59Z</time>
      </trkpt>
      <trkpt lat="50.50662" lon="2.55779">
        <ele>77</ele>
        <time>2009-09-13T18:44:59Z</time>
      </trkpt>
      <trkpt lat="50.50626" lon="2.55816">
        <ele>76.845001</ele>
        <time>2009-09-13T18:44:59Z</time>
      </trkpt>
      <trkpt lat="50.50585" lon="2.55845">
        <ele>76.43</ele>
        <time>2009-09-13T18:44:59Z</time>
      </trkpt>
      <trkpt lat="50.50547" lon="2.55853">
        <ele>76.313751</ele>
        <time>2009-09-13T18:44:59Z</time>
      </trkpt>
      <trkpt lat="50.50511" lon="2.55866">
        <ele>76.148972</ele>
        <time>2009-09-13T18:44:59Z</time>
      </trkpt>
      <trkpt lat="50.50481" lon="2.55884">
        <ele>75.717155</ele>
        <time>2009-09-13T18:44:59Z</time>
      </trkpt>
      <trkpt lat="50.50481" lon="2.55902">
        <ele>75.16494</ele>
        <time>2009-09-13T18:44:59Z</time>
      </trkpt>
      <trkpt lat="50.50517" lon="2.55889">
        <ele>75.408997</ele>
        <time>2009-09-13T18:44:59Z</time>
      </trkpt>
      <trkpt lat="50.50568" lon="2.55897">
        <ele>75.379997</ele>
        <time>2009-09-13T18:44:59Z</time>
      </trkpt>
      <trkpt lat="50.50594" lon="2.55937">
        <ele>74.245003</ele>
        <time>2009-09-13T18:44:59Z</time>
      </trkpt>
      <trkpt lat="50.50612" lon="2.5601">
        <ele>72.3256</ele>
        <time>2009-09-13T18:44:59Z</time>
      </trkpt>
      <trkpt lat="50.50618" lon="2.56061">
        <ele>70.513748</ele>
        <time>2009-09-13T18:44:59Z</time>
      </trkpt>
      <trkpt lat="50.50626" lon="2.56116">
        <ele>67.601799</ele>
        <time>2009-09-13T18:44:59Z</time>
      </trkpt>
      <trkpt lat="50.50621" lon="2.56173">
        <ele>63.215</ele>
        <time>2009-09-13T18:44:59Z</time>
      </trkpt>
      <trkpt lat="50.50594" lon="2.56234">
        <ele>57.907001</ele>
        <time>2009-09-13T18:44:59Z</time>
      </trkpt>
      <trkpt lat="50.50571" lon="2.56276">
        <ele>53.402061</ele>
        <time>2009-09-13T18:44:59Z</time>
      </trkpt>
      <trkpt lat="50.5055" lon="2.56319">
        <ele>50.244736</ele>
        <time>2009-09-13T18:44:59Z</time>
      </trkpt>
      <trkpt lat="50.50516" lon="2.56327">
        <ele>50.912498</ele>
        <time>2009-09-13T18:44:59Z</time>
      </trkpt>
      <trkpt lat="50.50481" lon="2.5632">
        <ele>52.18</ele>
        <time>2009-09-13T18:44:59Z</time>
      </trkpt>
      <trkpt lat="50.50447" lon="2.56318">
        <ele>52.888557</ele>
        <time>2009-09-13T18:44:59Z</time>
      </trkpt>
      <trkpt lat="50.50419" lon="2.56344">
        <ele>50.46175</ele>
        <time>2009-09-13T18:44:59Z</time>
      </trkpt>
      <trkpt lat="50.50409" lon="2.56416">
        <ele>45.345001</ele>
        <time>2009-09-13T18:44:59Z</time>
      </trkpt>
      <trkpt lat="50.50366" lon="2.56483">
        <ele>40.132175</ele>
        <time>2009-09-13T18:44:59Z</time>
      </trkpt>
      <trkpt lat="50.50338" lon="2.56512">
        <ele>37.833874</ele>
        <time>2009-09-13T18:44:59Z</time>
      </trkpt>
      <trkpt lat="50.50275" lon="2.56543">
        <ele>34.59</ele>
        <time>2009-09-13T18:44:59Z</time>
      </trkpt>
      <trkpt lat="50.5023" lon="2.56571">
        <ele>33.964725</ele>
        <time>2009-09-13T18:44:59Z</time>
      </trkpt>
      <trkpt lat="50.50198" lon="2.56596">
        <ele>33.909061</ele>
        <time>2009-09-13T18:44:59Z</time>
      </trkpt>
      <trkpt lat="50.50157" lon="2.56606">
        <ele>33.416248</ele>
        <time>2009-09-13T18:44:59Z</time>
      </trkpt>
      <trkpt lat="50.5012" lon="2.56532">
        <ele>33</ele>
        <time>2009-09-13T18:44:59Z</time>
      </trkpt>
      <trkpt lat="50.50097" lon="2.56458">
        <ele>33</ele>
        <time>2009-09-13T18:44:59Z</time>
      </trkpt>
      <trkpt lat="50.50064" lon="2.56372">
        <ele>33</ele>
        <time>2009-09-13T18:44:59Z</time>
      </trkpt>
      <trkpt lat="50.50029" lon="2.56324">
        <ele>33</ele>
        <time>2009-09-13T18:44:59Z</time>
      </trkpt>
      <trkpt lat="50.49986" lon="2.56279">
        <ele>33</ele>
        <time>2009-09-13T18:44:59Z</time>
      </trkpt>
      <trkpt lat="50.49966" lon="2.56233">
        <ele>33.039139</ele>
        <time>2009-09-13T18:44:59Z</time>
      </trkpt>
      <trkpt lat="50.49947" lon="2.5616">
        <ele>33</ele>
        <time>2009-09-13T18:44:59Z</time>
      </trkpt>
      <trkpt lat="50.49921" lon="2.56122">
        <ele>33</ele>
        <time>2009-09-13T18:44:59Z</time>
      </trkpt>
      <trkpt lat="50.49849" lon="2.5597">
        <ele>33</ele>
        <time>2009-09-13T18:44:59Z</time>
      </trkpt>
      <trkpt lat="50.49794" lon="2.55872">
        <ele>33</ele>
        <time>2009-09-13T18:44:59Z</time>
      </trkpt>
      <trkpt lat="50.49768" lon="2.55834">
        <ele>33.535</ele>
        <time>2009-09-13T18:44:59Z</time>
      </trkpt>
      <trkpt lat="50.49743" lon="2.55801">
        <ele>34</ele>
        <time>2009-09-13T18:44:59Z</time>
      </trkpt>
      <trkpt lat="50.49708" lon="2.55743">
        <ele>34</ele>
        <time>2009-09-13T18:44:59Z</time>
      </trkpt>
      <trkpt lat="50.49678" lon="2.55712">
        <ele>34</ele>
        <time>2009-09-13T18:44:59Z</time>
      </trkpt>
      <trkpt lat="50.49644" lon="2.55665">
        <ele>34</ele>
        <time>2009-09-13T18:44:59Z</time>
      </trkpt>
      <trkpt lat="50.49607" lon="2.55626">
        <ele>34</ele>
        <time>2009-09-13T18:44:59Z</time>
      </trkpt>
      <trkpt lat="50.49601" lon="2.55664">
        <ele>34.027023</ele>
        <time>2009-09-13T18:44:59Z</time>
      </trkpt>
      <trkpt lat="50.49638" lon="2.55709">
        <ele>34</ele>
        <time>2009-09-13T18:44:59Z</time>
      </trkpt>
      <trkpt lat="50.49666" lon="2.5574">
        <ele>34.002701</ele>
        <time>2009-09-13T18:44:59Z</time>
      </trkpt>
      <trkpt lat="50.49745" lon="2.55836">
        <ele>33.631226</ele>
        <time>2009-09-13T18:44:59Z</time>
      </trkpt>
      <trkpt lat="50.49784" lon="2.55892">
        <ele>33</ele>
        <time>2009-09-13T18:44:59Z</time>
      </trkpt>
      <trkpt lat="50.49812" lon="2.55937">
        <ele>33</ele>
        <time>2009-09-13T18:44:59Z</time>
      </trkpt>
      <trkpt lat="50.49852" lon="2.56005">
        <ele>33</ele>
        <time>2009-09-13T18:44:59Z</time>
      </trkpt>
      <trkpt lat="50.49862" lon="2.56056">
        <ele>33</ele>
        <time>2009-09-13T18:44:59Z</time>
      </trkpt>
      <trkpt lat="50.49821" lon="2.56061">
        <ele>33</ele>
        <time>2009-09-13T18:44:59Z</time>
      </trkpt>
      <trkpt lat="50.4979" lon="2.56093">
        <ele>33.532501</ele>
        <time>2009-09-13T18:44:59Z</time>
      </trkpt>
      <trkpt lat="50.49792" lon="2.56144">
        <ele>34.9375</ele>
        <time>2009-09-13T18:44:59Z</time>
      </trkpt>
      <trkpt lat="50.49765" lon="2.56171">
        <ele>36.719425</ele>
        <time>2009-09-13T18:44:59Z</time>
      </trkpt>
      <trkpt lat="50.49739" lon="2.56204">
        <ele>41.262188</ele>
        <time>2009-09-13T18:44:59Z</time>
      </trkpt>
      <trkpt lat="50.49715" lon="2.56253">
        <ele>46.749245</ele>
        <time>2009-09-13T18:44:59Z</time>
      </trkpt>
      <trkpt lat="50.49698" lon="2.56303">
        <ele>50.239204</ele>
        <time>2009-09-13T18:44:59Z</time>
      </trkpt>
      <trkpt lat="50.49662" lon="2.56338">
        <ele>53.200706</ele>
        <time>2009-09-13T18:44:59Z</time>
      </trkpt>
      <trkpt lat="50.4963" lon="2.56359">
        <ele>54.638695</ele>
        <time>2009-09-13T18:44:59Z</time>
      </trkpt>
      <trkpt lat="50.49582" lon="2.56379">
        <ele>56.308044</ele>
        <time>2009-09-13T18:44:59Z</time>
      </trkpt>
      <trkpt lat="50.49531" lon="2.56396">
        <ele>57.531395</ele>
        <time>2009-09-13T18:44:59Z</time>
      </trkpt>
      <trkpt lat="50.49475" lon="2.56429">
        <ele>57.348438</ele>
        <time>2009-09-13T18:44:59Z</time>
      </trkpt>
      <trkpt lat="50.49445" lon="2.56449">
        <ele>57.689999</ele>
        <time>2009-09-13T18:44:59Z</time>
      </trkpt>
      <trkpt lat="50.49375" lon="2.56471">
        <ele>57.192436</ele>
        <time>2009-09-13T18:44:59Z</time>
      </trkpt>
      <trkpt lat="50.49351" lon="2.56539">
        <ele>55.483749</ele>
        <time>2009-09-13T18:44:59Z</time>
      </trkpt>
      <trkpt lat="50.49304" lon="2.56517">
        <ele>55.781376</ele>
        <time>2009-09-13T18:44:59Z</time>
      </trkpt>
      <trkpt lat="50.49258" lon="2.56605">
        <ele>53.034401</ele>
        <time>2009-09-13T18:44:59Z</time>
      </trkpt>
      <trkpt lat="50.49239" lon="2.56665">
        <ele>51.685001</ele>
        <time>2009-09-13T18:44:59Z</time>
      </trkpt>
      <trkpt lat="50.49211" lon="2.56746">
        <ele>51.17625</ele>
        <time>2009-09-13T18:44:59Z</time>
      </trkpt>
      <trkpt lat="50.49178" lon="2.56757">
        <ele>52.39151</ele>
        <time>2009-09-13T18:44:59Z</time>
      </trkpt>
      <trkpt lat="50.49149" lon="2.56788">
        <ele>54.105</ele>
        <time>2009-09-13T18:44:59Z</time>
      </trkpt>
      <trkpt lat="50.49113" lon="2.5683">
        <ele>57.459351</ele>
        <time>2009-09-13T18:44:59Z</time>
      </trkpt>
      <trkpt lat="50.49075" lon="2.56879">
        <ele>62.34</ele>
        <time>2009-09-13T18:44:59Z</time>
      </trkpt>
      <trkpt lat="50.49043" lon="2.56922">
        <ele>66.404999</ele>
        <time>2009-09-13T18:44:59Z</time>
      </trkpt>
      <trkpt lat="50.49062" lon="2.56994">
        <ele>66.312065</ele>
        <time>2009-09-13T18:44:59Z</time>
      </trkpt>
      <trkpt lat="50.4907" lon="2.57043">
        <ele>66.811722</ele>
        <time>2009-09-13T18:44:59Z</time>
      </trkpt>
      <trkpt lat="50.49073" lon="2.57098">
        <ele>67.184998</ele>
        <time>2009-09-13T18:44:59Z</time>
      </trkpt>
      <trkpt lat="50.491" lon="2.57288">
        <ele>62.541248</ele>
        <time>2009-09-13T18:44:59Z</time>
      </trkpt>
      <trkpt lat="50.49066" lon="2.57307">
        <ele>64.203751</ele>
        <time>2009-09-13T18:44:59Z</time>
      </trkpt>
      <trkpt lat="50.49015" lon="2.5729">
        <ele>66.354065</ele>
        <time>2009-09-13T18:44:59Z</time>
      </trkpt>
      <trkpt lat="50.4898" lon="2.57308">
        <ele>67.25</ele>
        <time>2009-09-13T18:44:59Z</time>
      </trkpt>
      <trkpt lat="50.48943" lon="2.57331">
        <ele>68</ele>
        <time>2009-09-13T18:44:59Z</time>
      </trkpt>
      <trkpt lat="50.48947" lon="2.57411">
        <ele>67.036247</ele>
        <time>2009-09-13T18:44:59Z</time>
      </trkpt>
      <trkpt lat="50.48948" lon="2.57476">
        <ele>66.048462</ele>
        <time>2009-09-13T18:44:59Z</time>
      </trkpt>
      <trkpt lat="50.48925" lon="2.57549">
        <ele>65.979485</ele>
        <time>2009-09-13T18:44:59Z</time>
      </trkpt>
      <trkpt lat="50.48903" lon="2.57596">
        <ele>65.745003</ele>
        <time>2009-09-13T18:44:59Z</time>
      </trkpt>
      <trkpt lat="50.48889" lon="2.57653">
        <ele>64.222504</ele>
        <time>2009-09-13T18:44:59Z</time>
      </trkpt>
      <trkpt lat="50.48923" lon="2.57762">
        <ele>60.625</ele>
        <time>2009-09-13T18:44:59Z</time>
      </trkpt>
      <trkpt lat="50.48948" lon="2.5796">
        <ele>54.481331</ele>
        <time>2009-09-13T18:44:59Z</time>
      </trkpt>
      <trkpt lat="50.4897" lon="2.58147">
        <ele>52.591251</ele>
        <time>2009-09-13T18:44:59Z</time>
      </trkpt>
      <trkpt lat="50.49005" lon="2.58379">
        <ele>50.293751</ele>
        <time>2009-09-13T18:44:59Z</time>
      </trkpt>
      <trkpt lat="50.49048" lon="2.58552">
        <ele>47.672501</ele>
        <time>2009-09-13T18:44:59Z</time>
      </trkpt>
      <trkpt lat="50.49084" lon="2.58614">
        <ele>45.9575</ele>
        <time>2009-09-13T18:44:59Z</time>
      </trkpt>
      <trkpt lat="50.49099" lon="2.5866">
        <ele>45.305</ele>
        <time>2009-09-13T18:44:59Z</time>
      </trkpt>
      <trkpt lat="50.49124" lon="2.58754">
        <ele>43.994999</ele>
        <time>2009-09-13T18:44:59Z</time>
      </trkpt>
      <trkpt lat="50.49141" lon="2.58796">
        <ele>43.778751</ele>
        <time>2009-09-13T18:44:59Z</time>
      </trkpt>
      <trkpt lat="50.49162" lon="2.58837">
        <ele>43.485939</ele>
        <time>2009-09-13T18:44:59Z</time>
      </trkpt>
      <trkpt lat="50.49148" lon="2.58865">
        <ele>42.614262</ele>
        <time>2009-09-13T18:44:59Z</time>
      </trkpt>
      <trkpt lat="50.49118" lon="2.58898">
        <ele>41.821251</ele>
        <time>2009-09-13T18:44:59Z</time>
      </trkpt>
      <trkpt lat="50.49089" lon="2.58922">
        <ele>40.8325</ele>
        <time>2009-09-13T18:44:59Z</time>
      </trkpt>
      <trkpt lat="50.49033" lon="2.58955">
        <ele>40.105</ele>
        <time>2009-09-13T18:44:59Z</time>
      </trkpt>
      <trkpt lat="50.49001" lon="2.58971">
        <ele>39.258125</ele>
        <time>2009-09-13T18:44:59Z</time>
      </trkpt>
      <trkpt lat="50.48951" lon="2.58987">
        <ele>39.292126</ele>
        <time>2009-09-13T18:44:59Z</time>
      </trkpt>
      <trkpt lat="50.48911" lon="2.58991">
        <ele>40.007324</ele>
        <time>2009-09-13T18:44:59Z</time>
      </trkpt>
      <trkpt lat="50.48872" lon="2.59004">
        <ele>41.971249</ele>
        <time>2009-09-13T18:44:59Z</time>
      </trkpt>
      <trkpt lat="50.48838" lon="2.59012">
        <ele>43.5</ele>
        <time>2009-09-13T18:44:59Z</time>
      </trkpt>
      <trkpt lat="50.48751" lon="2.59038">
        <ele>45.590218</ele>
        <time>2009-09-13T18:44:59Z</time>
      </trkpt>
      <trkpt lat="50.48574" lon="2.59087">
        <ele>50.025002</ele>
        <time>2009-09-13T18:44:59Z</time>
      </trkpt>
      <trkpt lat="50.48536" lon="2.59095">
        <ele>50.922501</ele>
        <time>2009-09-13T18:44:59Z</time>
      </trkpt>
      <trkpt lat="50.48379" lon="2.59136">
        <ele>52</ele>
        <time>2009-09-13T18:44:59Z</time>
      </trkpt>
      <trkpt lat="50.48281" lon="2.59165">
        <ele>52</ele>
        <time>2009-09-13T18:44:59Z</time>
      </trkpt>
      <trkpt lat="50.48233" lon="2.59181">
        <ele>51.726974</ele>
        <time>2009-09-13T18:44:59Z</time>
      </trkpt>
      <trkpt lat="50.48173" lon="2.59204">
        <ele>49.769806</ele>
        <time>2009-09-13T18:44:59Z</time>
      </trkpt>
      <trkpt lat="50.48142" lon="2.59221">
        <ele>48.452412</ele>
        <time>2009-09-13T18:44:59Z</time>
      </trkpt>
      <trkpt lat="50.48129" lon="2.59287">
        <ele>47.911274</ele>
        <time>2009-09-13T18:44:59Z</time>
      </trkpt>
      <trkpt lat="50.48127" lon="2.59354">
        <ele>47.302952</ele>
        <time>2009-09-13T18:44:59Z</time>
      </trkpt>
      <trkpt lat="50.48117" lon="2.59426">
        <ele>46.742599</ele>
        <time>2009-09-13T18:44:59Z</time>
      </trkpt>
      <trkpt lat="50.48107" lon="2.59519">
        <ele>45.40625</ele>
        <time>2009-09-13T18:44:59Z</time>
      </trkpt>
      <trkpt lat="50.48106" lon="2.59603">
        <ele>44.303864</ele>
        <time>2009-09-13T18:44:59Z</time>
      </trkpt>
      <trkpt lat="50.4811" lon="2.59679">
        <ele>44</ele>
        <time>2009-09-13T18:44:59Z</time>
      </trkpt>
      <trkpt lat="50.48118" lon="2.59731">
        <ele>44</ele>
        <time>2009-09-13T18:44:59Z</time>
      </trkpt>
      <trkpt lat="50.4806" lon="2.59706">
        <ele>44</ele>
        <time>2009-09-13T18:44:59Z</time>
      </trkpt>
      <trkpt lat="50.48003" lon="2.59676">
        <ele>44</ele>
        <time>2009-09-13T18:44:59Z</time>
      </trkpt>
      <trkpt lat="50.4794" lon="2.59628">
        <ele>44</ele>
        <time>2009-09-13T18:44:59Z</time>
      </trkpt>
      <trkpt lat="50.47907" lon="2.59599">
        <ele>44.056145</ele>
        <time>2009-09-13T18:44:59Z</time>
      </trkpt>
      <trkpt lat="50.47869" lon="2.59576">
        <ele>44.930939</ele>
        <time>2009-09-13T18:44:59Z</time>
      </trkpt>
      <trkpt lat="50.4783" lon="2.5955">
        <ele>45</ele>
        <time>2009-09-13T18:44:59Z</time>
      </trkpt>
      <trkpt lat="50.47788" lon="2.5949">
        <ele>45.833401</ele>
        <time>2009-09-13T18:44:59Z</time>
      </trkpt>
      <trkpt lat="50.47763" lon="2.5944">
        <ele>46.115002</ele>
        <time>2009-09-13T18:44:59Z</time>
      </trkpt>
      <trkpt lat="50.47739" lon="2.59395">
        <ele>46.75375</ele>
        <time>2009-09-13T18:44:59Z</time>
      </trkpt>
      <trkpt lat="50.47696" lon="2.5932">
        <ele>47</ele>
        <time>2009-09-13T18:44:59Z</time>
      </trkpt>
      <trkpt lat="50.47672" lon="2.59281">
        <ele>47.571602</ele>
        <time>2009-09-13T18:44:59Z</time>
      </trkpt>
      <trkpt lat="50.47649" lon="2.59241">
        <ele>47.989689</ele>
        <time>2009-09-13T18:44:59Z</time>
      </trkpt>
      <trkpt lat="50.4762" lon="2.59193">
        <ele>48.801102</ele>
        <time>2009-09-13T18:44:59Z</time>
      </trkpt>
      <trkpt lat="50.47601" lon="2.59156">
        <ele>49.128963</ele>
        <time>2009-09-13T18:44:59Z</time>
      </trkpt>
      <trkpt lat="50.47572" lon="2.59108">
        <ele>49.92157</ele>
        <time>2009-09-13T18:44:59Z</time>
      </trkpt>
      <trkpt lat="50.47524" lon="2.59067">
        <ele>50.252346</ele>
        <time>2009-09-13T18:44:59Z</time>
      </trkpt>
      <trkpt lat="50.47493" lon="2.59044">
        <ele>50.815552</ele>
        <time>2009-09-13T18:44:59Z</time>
      </trkpt>
      <trkpt lat="50.47461" lon="2.59023">
        <ele>51.000874</ele>
        <time>2009-09-13T18:44:59Z</time>
      </trkpt>
      <trkpt lat="50.47424" lon="2.58996">
        <ele>51.349377</ele>
        <time>2009-09-13T18:44:59Z</time>
      </trkpt>
      <trkpt lat="50.47408" lon="2.58955">
        <ele>51.98875</ele>
        <time>2009-09-13T18:44:59Z</time>
      </trkpt>
      <trkpt lat="50.4739" lon="2.58913">
        <ele>52</ele>
        <time>2009-09-13T18:44:59Z</time>
      </trkpt>
      <trkpt lat="50.47354" lon="2.58876">
        <ele>52.108749</ele>
        <time>2009-09-13T18:44:59Z</time>
      </trkpt>
      <trkpt lat="50.47297" lon="2.58806">
        <ele>53.07</ele>
        <time>2009-09-13T18:44:59Z</time>
      </trkpt>
      <trkpt lat="50.47257" lon="2.58751">
        <ele>53.3564</ele>
        <time>2009-09-13T18:44:59Z</time>
      </trkpt>
      <trkpt lat="50.47166" lon="2.58622">
        <ele>54.708752</ele>
        <time>2009-09-13T18:44:59Z</time>
      </trkpt>
      <trkpt lat="50.47119" lon="2.58551">
        <ele>55.715</ele>
        <time>2009-09-13T18:44:59Z</time>
      </trkpt>
      <trkpt lat="50.47091" lon="2.58512">
        <ele>56.453411</ele>
        <time>2009-09-13T18:44:59Z</time>
      </trkpt>
      <trkpt lat="50.47067" lon="2.58467">
        <ele>57.05125</ele>
        <time>2009-09-13T18:44:59Z</time>
      </trkpt>
      <trkpt lat="50.47044" lon="2.58456">
        <ele>57.122501</ele>
        <time>2009-09-13T18:44:59Z</time>
      </trkpt>
      <trkpt lat="50.47035" lon="2.5851">
        <ele>55.899837</ele>
        <time>2009-09-13T18:44:59Z</time>
      </trkpt>
      <trkpt lat="50.47047" lon="2.58555">
        <ele>55.368752</ele>
        <time>2009-09-13T18:44:59Z</time>
      </trkpt>
      <trkpt lat="50.47043" lon="2.58609">
        <ele>54.442551</ele>
        <time>2009-09-13T18:44:59Z</time>
      </trkpt>
      <trkpt lat="50.47021" lon="2.58659">
        <ele>53.195225</ele>
        <time>2009-09-13T18:44:59Z</time>
      </trkpt>
      <trkpt lat="50.47018" lon="2.58708">
        <ele>51.950001</ele>
        <time>2009-09-13T18:44:59Z</time>
      </trkpt>
      <trkpt lat="50.47018" lon="2.58765">
        <ele>50.327499</ele>
        <time>2009-09-13T18:44:59Z</time>
      </trkpt>
      <trkpt lat="50.47017" lon="2.58818">
        <ele>49</ele>
        <time>2009-09-13T18:44:59Z</time>
      </trkpt>
      <trkpt lat="50.46988" lon="2.58832">
        <ele>49.414619</ele>
        <time>2009-09-13T18:44:59Z</time>
      </trkpt>
      <trkpt lat="50.46967" lon="2.58882">
        <ele>49.049999</ele>
        <time>2009-09-13T18:44:59Z</time>
      </trkpt>
      <trkpt lat="50.46906" lon="2.58977">
        <ele>49.785801</ele>
        <time>2009-09-13T18:44:59Z</time>
      </trkpt>
      <trkpt lat="50.46869" lon="2.59023">
        <ele>49.986526</ele>
        <time>2009-09-13T18:44:59Z</time>
      </trkpt>
      <trkpt lat="50.46844" lon="2.59057">
        <ele>49.891693</ele>
        <time>2009-09-13T18:44:59Z</time>
      </trkpt>
      <trkpt lat="50.46809" lon="2.59087">
        <ele>50.564999</ele>
        <time>2009-09-13T18:44:59Z</time>
      </trkpt>
      <trkpt lat="50.46779" lon="2.5909">
        <ele>51.470001</ele>
        <time>2009-09-13T18:44:59Z</time>
      </trkpt>
      <trkpt lat="50.46753" lon="2.59191">
        <ele>51.730911</ele>
        <time>2009-09-13T18:44:59Z</time>
      </trkpt>
      <trkpt lat="50.46743" lon="2.59226">
        <ele>52.06255</ele>
        <time>2009-09-13T18:44:59Z</time>
      </trkpt>
      <trkpt lat="50.46704" lon="2.59202">
        <ele>54.181377</ele>
        <time>2009-09-13T18:44:59Z</time>
      </trkpt>
      <trkpt lat="50.46656" lon="2.59126">
        <ele>57.438721</ele>
        <time>2009-09-13T18:44:59Z</time>
      </trkpt>
      <trkpt lat="50.46628" lon="2.59146">
        <ele>59</ele>
        <time>2009-09-13T18:44:59Z</time>
      </trkpt>
      <trkpt lat="50.466" lon="2.59182">
        <ele>60.0625</ele>
        <time>2009-09-13T18:44:59Z</time>
      </trkpt>
      <trkpt lat="50.46577" lon="2.5922">
        <ele>60.5075</ele>
        <time>2009-09-13T18:44:59Z</time>
      </trkpt>
      <trkpt lat="50.46547" lon="2.59278">
        <ele>61.12125</ele>
        <time>2009-09-13T18:44:59Z</time>
      </trkpt>
      <trkpt lat="50.4655" lon="2.59347">
        <ele>59.349998</ele>
        <time>2009-09-13T18:44:59Z</time>
      </trkpt>
      <trkpt lat="50.46511" lon="2.59396">
        <ele>59.689999</ele>
        <time>2009-09-13T18:44:59Z</time>
      </trkpt>
      <trkpt lat="50.46452" lon="2.59433">
        <ele>60.802467</ele>
        <time>2009-09-13T18:44:59Z</time>
      </trkpt>
      <trkpt lat="50.46405" lon="2.59443">
        <ele>61.484737</ele>
        <time>2009-09-13T18:44:59Z</time>
      </trkpt>
      <trkpt lat="50.46304" lon="2.5943">
        <ele>60.64875</ele>
        <time>2009-09-13T18:44:59Z</time>
      </trkpt>
      <trkpt lat="50.46292" lon="2.59376">
        <ele>62.750156</ele>
        <time>2009-09-13T18:44:59Z</time>
      </trkpt>
      <trkpt lat="50.4628" lon="2.59331">
        <ele>65.42234</ele>
        <time>2009-09-13T18:44:59Z</time>
      </trkpt>
      <trkpt lat="50.4626" lon="2.59279">
        <ele>68.979996</ele>
        <time>2009-09-13T18:44:59Z</time>
      </trkpt>
      <trkpt lat="50.46222" lon="2.59227">
        <ele>72.10125</ele>
        <time>2009-09-13T18:44:59Z</time>
      </trkpt>
      <trkpt lat="50.46206" lon="2.59189">
        <ele>73.717499</ele>
        <time>2009-09-13T18:44:59Z</time>
      </trkpt>
      <trkpt lat="50.46168" lon="2.59159">
        <ele>75.838249</ele>
        <time>2009-09-13T18:44:59Z</time>
      </trkpt>
      <trkpt lat="50.46133" lon="2.59155">
        <ele>76.320824</ele>
        <time>2009-09-13T18:44:59Z</time>
      </trkpt>
      <trkpt lat="50.46082" lon="2.59138">
        <ele>78.353401</ele>
        <time>2009-09-13T18:44:59Z</time>
      </trkpt>
      <trkpt lat="50.46043" lon="2.59101">
        <ele>81.307152</ele>
        <time>2009-09-13T18:44:59Z</time>
      </trkpt>
      <trkpt lat="50.46015" lon="2.59069">
        <ele>84.056946</ele>
        <time>2009-09-13T18:44:59Z</time>
      </trkpt>
      <trkpt lat="50.45984" lon="2.59036">
        <ele>87.611771</ele>
        <time>2009-09-13T18:44:59Z</time>
      </trkpt>
      <trkpt lat="50.4595" lon="2.59005">
        <ele>92.524986</ele>
        <time>2009-09-13T18:44:59Z</time>
      </trkpt>
      <trkpt lat="50.45925" lon="2.58973">
        <ele>95.531532</ele>
        <time>2009-09-13T18:44:59Z</time>
      </trkpt>
      <trkpt lat="50.4595" lon="2.58918">
        <ele>96.6548</ele>
        <time>2009-09-13T18:44:59Z</time>
      </trkpt>
      <trkpt lat="50.45984" lon="2.5886">
        <ele>98.203751</ele>
        <time>2009-09-13T18:44:59Z</time>
      </trkpt>
      <trkpt lat="50.46017" lon="2.5883">
        <ele>97.897499</ele>
        <time>2009-09-13T18:44:59Z</time>
      </trkpt>
      <trkpt lat="50.46049" lon="2.58822">
        <ele>97.303749</ele>
        <time>2009-09-13T18:44:59Z</time>
      </trkpt>
      <trkpt lat="50.4611" lon="2.58779">
        <ele>96.559998</ele>
        <time>2009-09-13T18:44:59Z</time>
      </trkpt>
      <trkpt lat="50.46098" lon="2.58708">
        <ele>97.197014</ele>
        <time>2009-09-13T18:44:59Z</time>
      </trkpt>
      <trkpt lat="50.46069" lon="2.58668">
        <ele>98.080002</ele>
        <time>2009-09-13T18:44:59Z</time>
      </trkpt>
      <trkpt lat="50.46026" lon="2.58628">
        <ele>99.040001</ele>
        <time>2009-09-13T18:44:59Z</time>
      </trkpt>
      <trkpt lat="50.45996" lon="2.58612">
        <ele>99.709999</ele>
        <time>2009-09-13T18:44:59Z</time>
      </trkpt>
      <trkpt lat="50.45937" lon="2.58583">
        <ele>100.823753</ele>
        <time>2009-09-13T18:44:59Z</time>
      </trkpt>
      <trkpt lat="50.45899" lon="2.58556">
        <ele>100.441254</ele>
        <time>2009-09-13T18:44:59Z</time>
      </trkpt>
      <trkpt lat="50.4587" lon="2.58533">
        <ele>100.176697</ele>
        <time>2009-09-13T18:44:59Z</time>
      </trkpt>
      <trkpt lat="50.45816" lon="2.58568">
        <ele>101.237503</ele>
        <time>2009-09-13T18:44:59Z</time>
      </trkpt>
      <trkpt lat="50.45787" lon="2.58577">
        <ele>101.404533</ele>
        <time>2009-09-13T18:44:59Z</time>
      </trkpt>
      <trkpt lat="50.45717" lon="2.58535">
        <ele>100.39875</ele>
        <time>2009-09-13T18:44:59Z</time>
      </trkpt>
      <trkpt lat="50.45668" lon="2.58509">
        <ele>101.627502</ele>
        <time>2009-09-13T18:44:59Z</time>
      </trkpt>
      <trkpt lat="50.45592" lon="2.58471">
        <ele>103.947502</ele>
        <time>2009-09-13T18:44:59Z</time>
      </trkpt>
      <trkpt lat="50.45519" lon="2.58433">
        <ele>106.417503</ele>
        <time>2009-09-13T18:44:59Z</time>
      </trkpt>
      <trkpt lat="50.45467" lon="2.58401">
        <ele>108.422035</ele>
        <time>2009-09-13T18:44:59Z</time>
      </trkpt>
      <trkpt lat="50.45416" lon="2.58343">
        <ele>109.384247</ele>
        <time>2009-09-13T18:44:59Z</time>
      </trkpt>
      <trkpt lat="50.45412" lon="2.58302">
        <ele>108.359825</ele>
        <time>2009-09-13T18:44:59Z</time>
      </trkpt>
      <trkpt lat="50.45436" lon="2.5827">
        <ele>106.892288</ele>
        <time>2009-09-13T18:44:59Z</time>
      </trkpt>
      <trkpt lat="50.45443" lon="2.58219">
        <ele>105.355003</ele>
        <time>2009-09-13T18:44:59Z</time>
      </trkpt>
      <trkpt lat="50.45398" lon="2.58196">
        <ele>104.728722</ele>
        <time>2009-09-13T18:44:59Z</time>
      </trkpt>
      <trkpt lat="50.45356" lon="2.58194">
        <ele>104.984604</ele>
        <time>2009-09-13T18:44:59Z</time>
      </trkpt>
      <trkpt lat="50.45328" lon="2.58173">
        <ele>105.314377</ele>
        <time>2009-09-13T18:44:59Z</time>
      </trkpt>
      <trkpt lat="50.45301" lon="2.58248">
        <ele>108.519997</ele>
        <time>2009-09-13T18:44:59Z</time>
      </trkpt>
      <trkpt lat="50.45266" lon="2.58299">
        <ele>111.481255</ele>
        <time>2009-09-13T18:44:59Z</time>
      </trkpt>
      <trkpt lat="50.45235" lon="2.58301">
        <ele>112.360901</ele>
        <time>2009-09-13T18:44:59Z</time>
      </trkpt>
      <trkpt lat="50.45156" lon="2.58283">
        <ele>114.843559</ele>
        <time>2009-09-13T18:44:59Z</time>
      </trkpt>
      <trkpt lat="50.45118" lon="2.58249">
        <ele>115.460114</ele>
        <time>2009-09-13T18:44:59Z</time>
      </trkpt>
      <trkpt lat="50.45132" lon="2.58182">
        <ele>113.324997</ele>
        <time>2009-09-13T18:44:59Z</time>
      </trkpt>
      <trkpt lat="50.45149" lon="2.58138">
        <ele>111.309998</ele>
        <time>2009-09-13T18:44:59Z</time>
      </trkpt>
      <trkpt lat="50.45163" lon="2.58073">
        <ele>108.725998</ele>
        <time>2009-09-13T18:44:59Z</time>
      </trkpt>
      <trkpt lat="50.45155" lon="2.58028">
        <ele>107.459999</ele>
        <time>2009-09-13T18:44:59Z</time>
      </trkpt>
      <trkpt lat="50.45144" lon="2.57924">
        <ele>107.230003</ele>
        <time>2009-09-13T18:44:59Z</time>
      </trkpt>
      <trkpt lat="50.45148" lon="2.57886">
        <ele>107.686249</ele>
        <time>2009-09-13T18:44:59Z</time>
      </trkpt>
      <trkpt lat="50.45197" lon="2.57833">
        <ele>107.353752</ele>
        <time>2009-09-13T18:44:59Z</time>
      </trkpt>
      <trkpt lat="50.45218" lon="2.57813">
        <ele>107.162773</ele>
        <time>2009-09-13T18:44:59Z</time>
      </trkpt>
      <trkpt lat="50.45273" lon="2.57898">
        <ele>105.623917</ele>
        <time>2009-09-13T18:44:59Z</time>
      </trkpt>
      <trkpt lat="50.45317" lon="2.5796">
        <ele>104.75</ele>
        <time>2009-09-13T18:44:59Z</time>
      </trkpt>
      <trkpt lat="50.4535" lon="2.57994">
        <ele>103.269997</ele>
        <time>2009-09-13T18:44:59Z</time>
      </trkpt>
      <trkpt lat="50.45382" lon="2.57975">
        <ele>101.849998</ele>
        <time>2009-09-13T18:44:59Z</time>
      </trkpt>
      <trkpt lat="50.45414" lon="2.57968">
        <ele>100.678825</ele>
        <time>2009-09-13T18:44:59Z</time>
      </trkpt>
      <trkpt lat="50.45481" lon="2.58004">
        <ele>99.385002</ele>
        <time>2009-09-13T18:44:59Z</time>
      </trkpt>
      <trkpt lat="50.45512" lon="2.58016">
        <ele>98.741249</ele>
        <time>2009-09-13T18:44:59Z</time>
      </trkpt>
      <trkpt lat="50.4557" lon="2.58042">
        <ele>97.379997</ele>
        <time>2009-09-13T18:44:59Z</time>
      </trkpt>
      <trkpt lat="50.45598" lon="2.5806">
        <ele>97.010002</ele>
        <time>2009-09-13T18:44:59Z</time>
      </trkpt>
      <trkpt lat="50.45627" lon="2.58056">
        <ele>96.317398</ele>
        <time>2009-09-13T18:44:59Z</time>
      </trkpt>
      <trkpt lat="50.45646" lon="2.57891">
        <ele>98.550461</ele>
        <time>2009-09-13T18:44:59Z</time>
      </trkpt>
      <trkpt lat="50.45666" lon="2.57728">
        <ele>101.43</ele>
        <time>2009-09-13T18:44:59Z</time>
      </trkpt>
      <trkpt lat="50.45673" lon="2.5768">
        <ele>101.958748</ele>
        <time>2009-09-13T18:44:59Z</time>
      </trkpt>
      <trkpt lat="50.45677" lon="2.5764">
        <ele>102.442497</ele>
        <time>2009-09-13T18:44:59Z</time>
      </trkpt>
      <trkpt lat="50.45682" lon="2.57604">
        <ele>102.754997</ele>
        <time>2009-09-13T18:44:59Z</time>
      </trkpt>
      <trkpt lat="50.45687" lon="2.57552">
        <ele>102.644997</ele>
        <time>2009-09-13T18:44:59Z</time>
      </trkpt>
      <trkpt lat="50.45667" lon="2.5753">
        <ele>103.232498</ele>
        <time>2009-09-13T18:44:59Z</time>
      </trkpt>
      <trkpt lat="50.45647" lon="2.575">
        <ele>104.108749</ele>
        <time>2009-09-13T18:44:59Z</time>
      </trkpt>
      <trkpt lat="50.45657" lon="2.57458">
        <ele>104.315002</ele>
        <time>2009-09-13T18:44:59Z</time>
      </trkpt>
      <trkpt lat="50.45687" lon="2.57444">
        <ele>103.650002</ele>
        <time>2009-09-13T18:44:59Z</time>
      </trkpt>
      <trkpt lat="50.45698" lon="2.57411">
        <ele>103.404999</ele>
        <time>2009-09-13T18:44:59Z</time>
      </trkpt>
      <trkpt lat="50.45687" lon="2.57278">
        <ele>103.654999</ele>
        <time>2009-09-13T18:44:59Z</time>
      </trkpt>
      <trkpt lat="50.45679" lon="2.57157">
        <ele>103.767799</ele>
        <time>2009-09-13T18:44:59Z</time>
      </trkpt>
      <trkpt lat="50.45674" lon="2.57099">
        <ele>103.910004</ele>
        <time>2009-09-13T18:44:59Z</time>
      </trkpt>
      <trkpt lat="50.45687" lon="2.57061">
        <ele>103.330002</ele>
        <time>2009-09-13T18:44:59Z</time>
      </trkpt>
      <trkpt lat="50.45766" lon="2.57045">
        <ele>99.809998</ele>
        <time>2009-09-13T18:44:59Z</time>
      </trkpt>
      <trkpt lat="50.45811" lon="2.57015">
        <ele>97.809998</ele>
        <time>2009-09-13T18:44:59Z</time>
      </trkpt>
      <trkpt lat="50.45826" lon="2.56977">
        <ele>97.130325</ele>
        <time>2009-09-13T18:44:59Z</time>
      </trkpt>
      <trkpt lat="50.45828" lon="2.56905">
        <ele>96.564827</ele>
        <time>2009-09-13T18:44:59Z</time>
      </trkpt>
      <trkpt lat="50.45823" lon="2.56853">
        <ele>96.416</ele>
        <time>2009-09-13T18:44:59Z</time>
      </trkpt>
      <trkpt lat="50.45817" lon="2.56818">
        <ele>95.980003</ele>
        <time>2009-09-13T18:44:59Z</time>
      </trkpt>
      <trkpt lat="50.458" lon="2.56782">
        <ele>95.727501</ele>
        <time>2009-09-13T18:44:59Z</time>
      </trkpt>
      <trkpt lat="50.45783" lon="2.56751">
        <ele>95.371254</ele>
        <time>2009-09-13T18:44:59Z</time>
      </trkpt>
      <trkpt lat="50.45802" lon="2.56749">
        <ele>94.434998</ele>
        <time>2009-09-13T18:44:59Z</time>
      </trkpt>
      <trkpt lat="50.45825" lon="2.56763">
        <ele>94.024498</ele>
        <time>2009-09-13T18:44:59Z</time>
      </trkpt>
      <trkpt lat="50.45852" lon="2.56776">
        <ele>93.230003</ele>
        <time>2009-09-13T18:44:59Z</time>
      </trkpt>
      <trkpt lat="50.45876" lon="2.56753">
        <ele>91.502502</ele>
        <time>2009-09-13T18:44:59Z</time>
      </trkpt>
      <trkpt lat="50.45859" lon="2.5674">
        <ele>91.895004</ele>
        <time>2009-09-13T18:44:59Z</time>
      </trkpt>
      <trkpt lat="50.45838" lon="2.56729">
        <ele>92.35096</ele>
        <time>2009-09-13T18:44:59Z</time>
      </trkpt>
      <trkpt lat="50.45821" lon="2.56704">
        <ele>91.944283</ele>
        <time>2009-09-13T18:44:59Z</time>
      </trkpt>
      <trkpt lat="50.45776" lon="2.56679">
        <ele>92.689301</ele>
        <time>2009-09-13T18:44:59Z</time>
      </trkpt>
      <trkpt lat="50.4577" lon="2.56635">
        <ele>91.157478</ele>
        <time>2009-09-13T18:44:59Z</time>
      </trkpt>
      <trkpt lat="50.45781" lon="2.56589">
        <ele>91.131248</ele>
        <time>2009-09-13T18:44:59Z</time>
      </trkpt>
      <trkpt lat="50.45777" lon="2.56533">
        <ele>92.800499</ele>
        <time>2009-09-13T18:44:59Z</time>
      </trkpt>
      <trkpt lat="50.45783" lon="2.56493">
        <ele>94.680878</ele>
        <time>2009-09-13T18:44:59Z</time>
      </trkpt>
      <trkpt lat="50.45784" lon="2.56439">
        <ele>96.352501</ele>
        <time>2009-09-13T18:44:59Z</time>
      </trkpt>
      <trkpt lat="50.45793" lon="2.5637">
        <ele>97.876137</ele>
        <time>2009-09-13T18:44:59Z</time>
      </trkpt>
      <trkpt lat="50.45821" lon="2.56327">
        <ele>97.982498</ele>
        <time>2009-09-13T18:44:59Z</time>
      </trkpt>
      <trkpt lat="50.45843" lon="2.56312">
        <ele>97.707497</ele>
        <time>2009-09-13T18:44:59Z</time>
      </trkpt>
      <trkpt lat="50.45881" lon="2.56302">
        <ele>97.001251</ele>
        <time>2009-09-13T18:44:59Z</time>
      </trkpt>
      <trkpt lat="50.45913" lon="2.56303">
        <ele>96.069199</ele>
        <time>2009-09-13T18:44:59Z</time>
      </trkpt>
      <trkpt lat="50.45948" lon="2.56306">
        <ele>94.879997</ele>
        <time>2009-09-13T18:44:59Z</time>
      </trkpt>
      <trkpt lat="50.45984" lon="2.56321">
        <ele>94.074997</ele>
        <time>2009-09-13T18:44:59Z</time>
      </trkpt>
      <trkpt lat="50.46014" lon="2.5635">
        <ele>93.362503</ele>
        <time>2009-09-13T18:44:59Z</time>
      </trkpt>
      <trkpt lat="50.46058" lon="2.56389">
        <ele>91.830002</ele>
        <time>2009-09-13T18:44:59Z</time>
      </trkpt>
      <trkpt lat="50.46085" lon="2.56445">
        <ele>90.43</ele>
        <time>2009-09-13T18:44:59Z</time>
      </trkpt>
      <trkpt lat="50.46098" lon="2.56522">
        <ele>88.555</ele>
        <time>2009-09-13T18:44:59Z</time>
      </trkpt>
      <trkpt lat="50.46108" lon="2.56565">
        <ele>87.107498</ele>
        <time>2009-09-13T18:44:59Z</time>
      </trkpt>
      <trkpt lat="50.46132" lon="2.56562">
        <ele>86.894997</ele>
        <time>2009-09-13T18:44:59Z</time>
      </trkpt>
      <trkpt lat="50.46156" lon="2.5653">
        <ele>87.498146</ele>
        <time>2009-09-13T18:44:59Z</time>
      </trkpt>
      <trkpt lat="50.46185" lon="2.56488">
        <ele>87.587952</ele>
        <time>2009-09-13T18:44:59Z</time>
      </trkpt>
      <trkpt lat="50.46209" lon="2.5647">
        <ele>86.806938</ele>
        <time>2009-09-13T18:44:59Z</time>
      </trkpt>
      <trkpt lat="50.46245" lon="2.56452">
        <ele>85.730003</ele>
        <time>2009-09-13T18:44:59Z</time>
      </trkpt>
      <trkpt lat="50.46275" lon="2.56486">
        <ele>85.137527</ele>
        <time>2009-09-13T18:44:59Z</time>
      </trkpt>
      <trkpt lat="50.46294" lon="2.56551">
        <ele>84.309998</ele>
        <time>2009-09-13T18:44:59Z</time>
      </trkpt>
      <trkpt lat="50.46306" lon="2.56583">
        <ele>83.584099</ele>
        <time>2009-09-13T18:44:59Z</time>
      </trkpt>
      <trkpt lat="50.46323" lon="2.56633">
        <ele>82.900002</ele>
        <time>2009-09-13T18:44:59Z</time>
      </trkpt>
      <trkpt lat="50.46356" lon="2.56735">
        <ele>80.119705</ele>
        <time>2009-09-13T18:44:59Z</time>
      </trkpt>
      <trkpt lat="50.46361" lon="2.56773">
        <ele>79.292885</ele>
        <time>2009-09-13T18:44:59Z</time>
      </trkpt>
      <trkpt lat="50.46327" lon="2.56812">
        <ele>78.648216</ele>
        <time>2009-09-13T18:44:59Z</time>
      </trkpt>
      <trkpt lat="50.46297" lon="2.56815">
        <ele>79</ele>
        <time>2009-09-13T18:44:59Z</time>
      </trkpt>
      <trkpt lat="50.46269" lon="2.56796">
        <ele>79</ele>
        <time>2009-09-13T18:44:59Z</time>
      </trkpt>
      <trkpt lat="50.46244" lon="2.56764">
        <ele>79.401375</ele>
        <time>2009-09-13T18:44:59Z</time>
      </trkpt>
      <trkpt lat="50.4622" lon="2.56727">
        <ele>80.527496</ele>
        <time>2009-09-13T18:44:59Z</time>
      </trkpt>
      <trkpt lat="50.46152" lon="2.56609">
        <ele>85.559998</ele>
        <time>2009-09-13T18:44:59Z</time>
      </trkpt>
      <trkpt lat="50.46136" lon="2.56588">
        <ele>86.157501</ele>
        <time>2009-09-13T18:44:59Z</time>
      </trkpt>
      <trkpt lat="50.46115" lon="2.566">
        <ele>85.957497</ele>
        <time>2009-09-13T18:44:59Z</time>
      </trkpt>
      <trkpt lat="50.46115" lon="2.56658">
        <ele>84.662628</ele>
        <time>2009-09-13T18:44:59Z</time>
      </trkpt>
      <trkpt lat="50.46089" lon="2.56703">
        <ele>83.9216</ele>
        <time>2009-09-13T18:44:59Z</time>
      </trkpt>
      <trkpt lat="50.46023" lon="2.56748">
        <ele>84.617935</ele>
        <time>2009-09-13T18:44:59Z</time>
      </trkpt>
      <trkpt lat="50.4599" lon="2.56763">
        <ele>85.855904</ele>
        <time>2009-09-13T18:44:59Z</time>
      </trkpt>
      <trkpt lat="50.45965" lon="2.56792">
        <ele>87.6008</ele>
        <time>2009-09-13T18:44:59Z</time>
      </trkpt>
      <trkpt lat="50.45947" lon="2.56821">
        <ele>89.300003</ele>
        <time>2009-09-13T18:44:59Z</time>
      </trkpt>
      <trkpt lat="50.45935" lon="2.56849">
        <ele>90.434998</ele>
        <time>2009-09-13T18:44:59Z</time>
      </trkpt>
      <trkpt lat="50.45926" lon="2.56882">
        <ele>91.035004</ele>
        <time>2009-09-13T18:44:59Z</time>
      </trkpt>
      <trkpt lat="50.45918" lon="2.56928">
        <ele>91.691399</ele>
        <time>2009-09-13T18:44:59Z</time>
      </trkpt>
      <trkpt lat="50.45914" lon="2.56969">
        <ele>92.164429</ele>
        <time>2009-09-13T18:44:59Z</time>
      </trkpt>
      <trkpt lat="50.45919" lon="2.57025">
        <ele>92.643753</ele>
        <time>2009-09-13T18:44:59Z</time>
      </trkpt>
      <trkpt lat="50.45927" lon="2.57062">
        <ele>92.629997</ele>
        <time>2009-09-13T18:44:59Z</time>
      </trkpt>
      <trkpt lat="50.45938" lon="2.57078">
        <ele>92.139999</ele>
        <time>2009-09-13T18:44:59Z</time>
      </trkpt>
      <trkpt lat="50.45951" lon="2.57044">
        <ele>91.025452</ele>
        <time>2009-09-13T18:44:59Z</time>
      </trkpt>
      <trkpt lat="50.4596" lon="2.57028">
        <ele>89.885124</ele>
        <time>2009-09-13T18:44:59Z</time>
      </trkpt>
      <trkpt lat="50.45936" lon="2.57032">
        <ele>91.982498</ele>
        <time>2009-09-13T18:44:59Z</time>
      </trkpt>
      <trkpt lat="50.45931" lon="2.56995">
        <ele>91.686249</ele>
        <time>2009-09-13T18:44:59Z</time>
      </trkpt>
      <trkpt lat="50.45928" lon="2.56961">
        <ele>91.408463</ele>
        <time>2009-09-13T18:44:59Z</time>
      </trkpt>
      <trkpt lat="50.45932" lon="2.56914">
        <ele>90.688263</ele>
        <time>2009-09-13T18:44:59Z</time>
      </trkpt>
      <trkpt lat="50.45956" lon="2.56836">
        <ele>88.694504</ele>
        <time>2009-09-13T18:44:59Z</time>
      </trkpt>
      <trkpt lat="50.45993" lon="2.56793">
        <ele>85.709999</ele>
        <time>2009-09-13T18:44:59Z</time>
      </trkpt>
      <trkpt lat="50.46025" lon="2.56774">
        <ele>84.279999</ele>
        <time>2009-09-13T18:44:59Z</time>
      </trkpt>
      <trkpt lat="50.46057" lon="2.56752">
        <ele>83.669998</ele>
        <time>2009-09-13T18:44:59Z</time>
      </trkpt>
      <trkpt lat="50.46089" lon="2.5676">
        <ele>82.878838</ele>
        <time>2009-09-13T18:44:59Z</time>
      </trkpt>
      <trkpt lat="50.46116" lon="2.56762">
        <ele>82.305855</ele>
        <time>2009-09-13T18:44:59Z</time>
      </trkpt>
      <trkpt lat="50.46157" lon="2.56756">
        <ele>81.426498</ele>
        <time>2009-09-13T18:44:59Z</time>
      </trkpt>
      <trkpt lat="50.46179" lon="2.5676">
        <ele>80.84375</ele>
        <time>2009-09-13T18:44:59Z</time>
      </trkpt>
      <trkpt lat="50.46215" lon="2.56799">
        <ele>79.904999</ele>
        <time>2009-09-13T18:44:59Z</time>
      </trkpt>
      <trkpt lat="50.46246" lon="2.56846">
        <ele>79.300003</ele>
        <time>2009-09-13T18:44:59Z</time>
      </trkpt>
      <trkpt lat="50.46259" lon="2.56885">
        <ele>79.537598</ele>
        <time>2009-09-13T18:44:59Z</time>
      </trkpt>
      <trkpt lat="50.46262" lon="2.56931">
        <ele>79.709999</ele>
        <time>2009-09-13T18:44:59Z</time>
      </trkpt>
      <trkpt lat="50.46254" lon="2.56973">
        <ele>80.029999</ele>
        <time>2009-09-13T18:44:59Z</time>
      </trkpt>
      <trkpt lat="50.46244" lon="2.57006">
        <ele>80.612503</ele>
        <time>2009-09-13T18:44:59Z</time>
      </trkpt>
      <trkpt lat="50.46235" lon="2.57042">
        <ele>81.324997</ele>
        <time>2009-09-13T18:44:59Z</time>
      </trkpt>
      <trkpt lat="50.46208" lon="2.57117">
        <ele>83.890312</ele>
        <time>2009-09-13T18:44:59Z</time>
      </trkpt>
      <trkpt lat="50.46191" lon="2.57141">
        <ele>84</ele>
        <time>2009-09-13T18:44:59Z</time>
      </trkpt>
      <trkpt lat="50.46172" lon="2.57187">
        <ele>84</ele>
        <time>2009-09-13T18:44:59Z</time>
      </trkpt>
      <trkpt lat="50.46143" lon="2.57213">
        <ele>84.495003</ele>
        <time>2009-09-13T18:44:59Z</time>
      </trkpt>
      <trkpt lat="50.46119" lon="2.57242">
        <ele>85.068222</ele>
        <time>2009-09-13T18:44:59Z</time>
      </trkpt>
      <trkpt lat="50.46094" lon="2.5726">
        <ele>86.746956</ele>
        <time>2009-09-13T18:44:59Z</time>
      </trkpt>
      <trkpt lat="50.46085" lon="2.57296">
        <ele>87.962502</ele>
        <time>2009-09-13T18:44:59Z</time>
      </trkpt>
      <trkpt lat="50.46096" lon="2.57332">
        <ele>88.081253</ele>
        <time>2009-09-13T18:44:59Z</time>
      </trkpt>
      <trkpt lat="50.46115" lon="2.57387">
        <ele>88.012497</ele>
        <time>2009-09-13T18:44:59Z</time>
      </trkpt>
      <trkpt lat="50.46141" lon="2.57448">
        <ele>87.71875</ele>
        <time>2009-09-13T18:44:59Z</time>
      </trkpt>
      <trkpt lat="50.46164" lon="2.57491">
        <ele>87.298752</ele>
        <time>2009-09-13T18:44:59Z</time>
      </trkpt>
      <trkpt lat="50.46211" lon="2.57564">
        <ele>87.245674</ele>
        <time>2009-09-13T18:44:59Z</time>
      </trkpt>
      <trkpt lat="50.46265" lon="2.57665">
        <ele>86.754997</ele>
        <time>2009-09-13T18:44:59Z</time>
      </trkpt>
      <trkpt lat="50.46301" lon="2.57705">
        <ele>85.949997</ele>
        <time>2009-09-13T18:44:59Z</time>
      </trkpt>
      <trkpt lat="50.46326" lon="2.57724">
        <ele>85.389999</ele>
        <time>2009-09-13T18:44:59Z</time>
      </trkpt>
      <trkpt lat="50.46353" lon="2.57722">
        <ele>84.790001</ele>
        <time>2009-09-13T18:44:59Z</time>
      </trkpt>
      <trkpt lat="50.46372" lon="2.57701">
        <ele>84.370003</ele>
        <time>2009-09-13T18:44:59Z</time>
      </trkpt>
      <trkpt lat="50.46389" lon="2.57668">
        <ele>83.997726</ele>
        <time>2009-09-13T18:44:59Z</time>
      </trkpt>
      <trkpt lat="50.46403" lon="2.57635">
        <ele>83.776398</ele>
        <time>2009-09-13T18:44:59Z</time>
      </trkpt>
      <trkpt lat="50.46421" lon="2.57601">
        <ele>83.279999</ele>
        <time>2009-09-13T18:44:59Z</time>
      </trkpt>
      <trkpt lat="50.46445" lon="2.57566">
        <ele>82.825966</ele>
        <time>2009-09-13T18:44:59Z</time>
      </trkpt>
      <trkpt lat="50.46467" lon="2.57516">
        <ele>82.65625</ele>
        <time>2009-09-13T18:44:59Z</time>
      </trkpt>
      <trkpt lat="50.46482" lon="2.57492">
        <ele>82.683342</ele>
        <time>2009-09-13T18:44:59Z</time>
      </trkpt>
      <trkpt lat="50.46523" lon="2.57417">
        <ele>80.433891</ele>
        <time>2009-09-13T18:44:59Z</time>
      </trkpt>
      <trkpt lat="50.46523" lon="2.57381">
        <ele>79.429604</ele>
        <time>2009-09-13T18:44:59Z</time>
      </trkpt>
      <trkpt lat="50.46495" lon="2.57337">
        <ele>81.879601</ele>
        <time>2009-09-13T18:44:59Z</time>
      </trkpt>
      <trkpt lat="50.46463" lon="2.573">
        <ele>83.395309</ele>
        <time>2009-09-13T18:44:59Z</time>
      </trkpt>
      <trkpt lat="50.46424" lon="2.57259">
        <ele>83.795998</ele>
        <time>2009-09-13T18:44:59Z</time>
      </trkpt>
      <trkpt lat="50.46395" lon="2.57231">
        <ele>83.330627</ele>
        <time>2009-09-13T18:44:59Z</time>
      </trkpt>
      <trkpt lat="50.46371" lon="2.57205">
        <ele>83.51915</ele>
        <time>2009-09-13T18:44:59Z</time>
      </trkpt>
      <trkpt lat="50.46376" lon="2.57177">
        <ele>82.209877</ele>
        <time>2009-09-13T18:44:59Z</time>
      </trkpt>
      <trkpt lat="50.46404" lon="2.57131">
        <ele>77.056801</ele>
        <time>2009-09-13T18:44:59Z</time>
      </trkpt>
      <trkpt lat="50.46429" lon="2.571">
        <ele>75.210938</ele>
        <time>2009-09-13T18:44:59Z</time>
      </trkpt>
      <trkpt lat="50.46451" lon="2.57114">
        <ele>74.672546</ele>
        <time>2009-09-13T18:44:59Z</time>
      </trkpt>
      <trkpt lat="50.4647" lon="2.57178">
        <ele>75.488922</ele>
        <time>2009-09-13T18:44:59Z</time>
      </trkpt>
      <trkpt lat="50.46482" lon="2.57199">
        <ele>75.481422</ele>
        <time>2009-09-13T18:44:59Z</time>
      </trkpt>
      <trkpt lat="50.46487" lon="2.57163">
        <ele>74.4505</ele>
        <time>2009-09-13T18:44:59Z</time>
      </trkpt>
      <trkpt lat="50.46474" lon="2.57139">
        <ele>74.446404</ele>
        <time>2009-09-13T18:44:59Z</time>
      </trkpt>
      <trkpt lat="50.46452" lon="2.57085">
        <ele>74.815727</ele>
        <time>2009-09-13T18:44:59Z</time>
      </trkpt>
      <trkpt lat="50.46462" lon="2.57081">
        <ele>74.746849</ele>
        <time>2009-09-13T18:44:59Z</time>
      </trkpt>
      <trkpt lat="50.4649" lon="2.57077">
        <ele>74.878754</ele>
        <time>2009-09-13T18:44:59Z</time>
      </trkpt>
      <trkpt lat="50.46486" lon="2.57047">
        <ele>75.274849</ele>
        <time>2009-09-13T18:44:59Z</time>
      </trkpt>
      <trkpt lat="50.46464" lon="2.56995">
        <ele>76.338478</ele>
        <time>2009-09-13T18:44:59Z</time>
      </trkpt>
      <trkpt lat="50.46474" lon="2.56962">
        <ele>77.153748</ele>
        <time>2009-09-13T18:44:59Z</time>
      </trkpt>
      <trkpt lat="50.46511" lon="2.5694">
        <ele>77.59375</ele>
        <time>2009-09-13T18:44:59Z</time>
      </trkpt>
      <trkpt lat="50.4654" lon="2.5692">
        <ele>78.22625</ele>
        <time>2009-09-13T18:44:59Z</time>
      </trkpt>
      <trkpt lat="50.46569" lon="2.5692">
        <ele>78.872498</ele>
        <time>2009-09-13T18:44:59Z</time>
      </trkpt>
      <trkpt lat="50.46606" lon="2.56911">
        <ele>79.828751</ele>
        <time>2009-09-13T18:44:59Z</time>
      </trkpt>
      <trkpt lat="50.46636" lon="2.56911">
        <ele>80.5</ele>
        <time>2009-09-13T18:44:59Z</time>
      </trkpt>
      <trkpt lat="50.46664" lon="2.56888">
        <ele>81.448753</ele>
        <time>2009-09-13T18:44:59Z</time>
      </trkpt>
      <trkpt lat="50.467" lon="2.56842">
        <ele>82.90625</ele>
        <time>2009-09-13T18:44:59Z</time>
      </trkpt>
      <trkpt lat="50.4673" lon="2.56801">
        <ele>83.58625</ele>
        <time>2009-09-13T18:44:59Z</time>
      </trkpt>
      <trkpt lat="50.46777" lon="2.56734">
        <ele>84</ele>
        <time>2009-09-13T18:44:59Z</time>
      </trkpt>
      <trkpt lat="50.46801" lon="2.56707">
        <ele>84</ele>
        <time>2009-09-13T18:44:59Z</time>
      </trkpt>
      <trkpt lat="50.46822" lon="2.56678">
        <ele>84</ele>
        <time>2009-09-13T18:44:59Z</time>
      </trkpt>
      <trkpt lat="50.46846" lon="2.5665">
        <ele>84</ele>
        <time>2009-09-13T18:44:59Z</time>
      </trkpt>
      <trkpt lat="50.46863" lon="2.56628">
        <ele>84.026436</ele>
        <time>2009-09-13T18:44:59Z</time>
      </trkpt>
      <trkpt lat="50.46828" lon="2.56562">
        <ele>84.993752</ele>
        <time>2009-09-13T18:44:59Z</time>
      </trkpt>
      <trkpt lat="50.46798" lon="2.56525">
        <ele>85.476097</ele>
        <time>2009-09-13T18:44:59Z</time>
      </trkpt>
      <trkpt lat="50.46779" lon="2.56497">
        <ele>85.915001</ele>
        <time>2009-09-13T18:44:59Z</time>
      </trkpt>
      <trkpt lat="50.46809" lon="2.56434">
        <ele>86.4925</ele>
        <time>2009-09-13T18:44:59Z</time>
      </trkpt>
      <trkpt lat="50.46836" lon="2.56384">
        <ele>86.080002</ele>
        <time>2009-09-13T18:44:59Z</time>
      </trkpt>
      <trkpt lat="50.46864" lon="2.56301">
        <ele>85.459999</ele>
        <time>2009-09-13T18:44:59Z</time>
      </trkpt>
      <trkpt lat="50.46904" lon="2.56196">
        <ele>83.48185</ele>
        <time>2009-09-13T18:44:59Z</time>
      </trkpt>
      <trkpt lat="50.46947" lon="2.56223">
        <ele>82.288734</ele>
        <time>2009-09-13T18:44:59Z</time>
      </trkpt>
      <trkpt lat="50.46973" lon="2.56255">
        <ele>81.671097</ele>
        <time>2009-09-13T18:44:59Z</time>
      </trkpt>
      <trkpt lat="50.47012" lon="2.56307">
        <ele>80.6287</ele>
        <time>2009-09-13T18:44:59Z</time>
      </trkpt>
      <trkpt lat="50.47053" lon="2.56366">
        <ele>79.643829</ele>
        <time>2009-09-13T18:44:59Z</time>
      </trkpt>
      <trkpt lat="50.47123" lon="2.56481">
        <ele>79.514999</ele>
        <time>2009-09-13T18:44:59Z</time>
      </trkpt>
      <trkpt lat="50.47198" lon="2.56612">
        <ele>79.693748</ele>
        <time>2009-09-13T18:44:59Z</time>
      </trkpt>
      <trkpt lat="50.47232" lon="2.56668">
        <ele>79.239998</ele>
        <time>2009-09-13T18:44:59Z</time>
      </trkpt>
      <trkpt lat="50.47264" lon="2.5673">
        <ele>79</ele>
        <time>2009-09-13T18:44:59Z</time>
      </trkpt>
      <trkpt lat="50.47313" lon="2.56848">
        <ele>78.411186</ele>
        <time>2009-09-13T18:44:59Z</time>
      </trkpt>
      <trkpt lat="50.47349" lon="2.56903">
        <ele>77.625</ele>
        <time>2009-09-13T18:44:59Z</time>
      </trkpt>
      <trkpt lat="50.47377" lon="2.56949">
        <ele>76.518753</ele>
        <time>2009-09-13T18:44:59Z</time>
      </trkpt>
      <trkpt lat="50.47393" lon="2.5699">
        <ele>75.581253</ele>
        <time>2009-09-13T18:44:59Z</time>
      </trkpt>
      <trkpt lat="50.474" lon="2.57028">
        <ele>74.881248</ele>
        <time>2009-09-13T18:44:59Z</time>
      </trkpt>
      <trkpt lat="50.47406" lon="2.57093">
        <ele>73.821251</ele>
        <time>2009-09-13T18:44:59Z</time>
      </trkpt>
      <trkpt lat="50.47416" lon="2.5725">
        <ele>70.473747</ele>
        <time>2009-09-13T18:44:59Z</time>
      </trkpt>
      <trkpt lat="50.47426" lon="2.57284">
        <ele>69.624992</ele>
        <time>2009-09-13T18:44:59Z</time>
      </trkpt>
      <trkpt lat="50.47426" lon="2.57314">
        <ele>69.150459</ele>
        <time>2009-09-13T18:44:59Z</time>
      </trkpt>
      <trkpt lat="50.47415" lon="2.57354">
        <ele>68.829391</ele>
        <time>2009-09-13T18:44:59Z</time>
      </trkpt>
      <trkpt lat="50.47372" lon="2.57472">
        <ele>69.252502</ele>
        <time>2009-09-13T18:44:59Z</time>
      </trkpt>
      <trkpt lat="50.47371" lon="2.57503">
        <ele>68.85125</ele>
        <time>2009-09-13T18:44:59Z</time>
      </trkpt>
      <trkpt lat="50.47402" lon="2.57538">
        <ele>66.805138</ele>
        <time>2009-09-13T18:44:59Z</time>
      </trkpt>
      <trkpt lat="50.47429" lon="2.57553">
        <ele>65.442589</ele>
        <time>2009-09-13T18:44:59Z</time>
      </trkpt>
      <trkpt lat="50.47449" lon="2.57498">
        <ele>63.844063</ele>
        <time>2009-09-13T18:44:59Z</time>
      </trkpt>
      <trkpt lat="50.4748" lon="2.57437">
        <ele>63.855</ele>
        <time>2009-09-13T18:44:59Z</time>
      </trkpt>
      <trkpt lat="50.47506" lon="2.5738">
        <ele>64.904999</ele>
        <time>2009-09-13T18:44:59Z</time>
      </trkpt>
      <trkpt lat="50.47524" lon="2.57329">
        <ele>66.217384</ele>
        <time>2009-09-13T18:44:59Z</time>
      </trkpt>
      <trkpt lat="50.47552" lon="2.57235">
        <ele>68.017502</ele>
        <time>2009-09-13T18:44:59Z</time>
      </trkpt>
      <trkpt lat="50.47603" lon="2.57017">
        <ele>70.052498</ele>
        <time>2009-09-13T18:44:59Z</time>
      </trkpt>
      <trkpt lat="50.47652" lon="2.56795">
        <ele>71.515938</ele>
        <time>2009-09-13T18:44:59Z</time>
      </trkpt>
      <trkpt lat="50.47667" lon="2.56738">
        <ele>71.080002</ele>
        <time>2009-09-13T18:44:59Z</time>
      </trkpt>
      <trkpt lat="50.4768" lon="2.56684">
        <ele>70.430313</ele>
        <time>2009-09-13T18:44:59Z</time>
      </trkpt>
      <trkpt lat="50.47719" lon="2.56552">
        <ele>66.394997</ele>
        <time>2009-09-13T18:44:59Z</time>
      </trkpt>
      <trkpt lat="50.47735" lon="2.56492">
        <ele>64.160011</ele>
        <time>2009-09-13T18:44:59Z</time>
      </trkpt>
      <trkpt lat="50.47747" lon="2.56453">
        <ele>65.255226</ele>
        <time>2009-09-13T18:44:59Z</time>
      </trkpt>
      <trkpt lat="50.4776" lon="2.564">
        <ele>67.592499</ele>
        <time>2009-09-13T18:44:59Z</time>
      </trkpt>
      <trkpt lat="50.4776" lon="2.56349">
        <ele>69.682503</ele>
        <time>2009-09-13T18:44:59Z</time>
      </trkpt>
      <trkpt lat="50.47755" lon="2.56247">
        <ele>73.001251</ele>
        <time>2009-09-13T18:44:59Z</time>
      </trkpt>
      <trkpt lat="50.4774" lon="2.561">
        <ele>76.683746</ele>
        <time>2009-09-13T18:44:59Z</time>
      </trkpt>
      <trkpt lat="50.47743" lon="2.56059">
        <ele>77.332497</ele>
        <time>2009-09-13T18:44:59Z</time>
      </trkpt>
      <trkpt lat="50.47772" lon="2.55906">
        <ele>79</ele>
        <time>2009-09-13T18:44:59Z</time>
      </trkpt>
      <trkpt lat="50.47802" lon="2.55915">
        <ele>79.434998</ele>
        <time>2009-09-13T18:44:59Z</time>
      </trkpt>
      <trkpt lat="50.47824" lon="2.5594">
        <ele>79.837128</ele>
        <time>2009-09-13T18:44:59Z</time>
      </trkpt>
      <trkpt lat="50.47876" lon="2.5601">
        <ele>79.002502</ele>
        <time>2009-09-13T18:44:59Z</time>
      </trkpt>
      <trkpt lat="50.4789" lon="2.56024">
        <ele>79.114998</ele>
        <time>2009-09-13T18:44:59Z</time>
      </trkpt>
      <trkpt lat="50.47921" lon="2.56059">
        <ele>79.21875</ele>
        <time>2009-09-13T18:44:59Z</time>
      </trkpt>
      <trkpt lat="50.47958" lon="2.56098">
        <ele>78.639549</ele>
        <time>2009-09-13T18:44:59Z</time>
      </trkpt>
      <trkpt lat="50.47998" lon="2.56122">
        <ele>78.327499</ele>
        <time>2009-09-13T18:44:59Z</time>
      </trkpt>
      <trkpt lat="50.48034" lon="2.56135">
        <ele>78.055824</ele>
        <time>2009-09-13T18:44:59Z</time>
      </trkpt>
      <trkpt lat="50.48058" lon="2.56142">
        <ele>77.849998</ele>
        <time>2009-09-13T18:44:59Z</time>
      </trkpt>
      <trkpt lat="50.48086" lon="2.5614">
        <ele>77.224998</ele>
        <time>2009-09-13T18:44:59Z</time>
      </trkpt>
      <trkpt lat="50.48127" lon="2.56118">
        <ele>75.620003</ele>
        <time>2009-09-13T18:44:59Z</time>
      </trkpt>
      <trkpt lat="50.48143" lon="2.56107">
        <ele>74.910004</ele>
        <time>2009-09-13T18:44:59Z</time>
      </trkpt>
      <trkpt lat="50.48167" lon="2.5611">
        <ele>73.839996</ele>
        <time>2009-09-13T18:44:59Z</time>
      </trkpt>
      <trkpt lat="50.48224" lon="2.56173">
        <ele>71.62619</ele>
        <time>2009-09-13T18:44:59Z</time>
      </trkpt>
      <trkpt lat="50.48247" lon="2.56174">
        <ele>70.810883</ele>
        <time>2009-09-13T18:44:59Z</time>
      </trkpt>
      <trkpt lat="50.4827" lon="2.56157">
        <ele>69.535934</ele>
        <time>2009-09-13T18:44:59Z</time>
      </trkpt>
      <trkpt lat="50.483" lon="2.56145">
        <ele>67.931801</ele>
        <time>2009-09-13T18:44:59Z</time>
      </trkpt>
      <trkpt lat="50.48358" lon="2.56135">
        <ele>66.489998</ele>
        <time>2009-09-13T18:44:59Z</time>
      </trkpt>
      <trkpt lat="50.48507" lon="2.56106">
        <ele>66.175003</ele>
        <time>2009-09-13T18:44:59Z</time>
      </trkpt>
      <trkpt lat="50.48539" lon="2.56098">
        <ele>66.407501</ele>
        <time>2009-09-13T18:44:59Z</time>
      </trkpt>
      <trkpt lat="50.48586" lon="2.56102">
        <ele>65.700653</ele>
        <time>2009-09-13T18:44:59Z</time>
      </trkpt>
      <trkpt lat="50.48626" lon="2.56107">
        <ele>64.771248</ele>
        <time>2009-09-13T18:44:59Z</time>
      </trkpt>
      <trkpt lat="50.48637" lon="2.56131">
        <ele>64.184998</ele>
        <time>2009-09-13T18:44:59Z</time>
      </trkpt>
      <trkpt lat="50.4863" lon="2.5616">
        <ele>63.910252</ele>
        <time>2009-09-13T18:44:59Z</time>
      </trkpt>
      <trkpt lat="50.4865" lon="2.56187">
        <ele>63.289249</ele>
        <time>2009-09-13T18:44:59Z</time>
      </trkpt>
      <trkpt lat="50.48658" lon="2.56214">
        <ele>63.028786</ele>
        <time>2009-09-13T18:44:59Z</time>
      </trkpt>
      <trkpt lat="50.48664" lon="2.56263">
        <ele>61.942726</ele>
        <time>2009-09-13T18:44:59Z</time>
      </trkpt>
      <trkpt lat="50.48654" lon="2.56286">
        <ele>61.612202</ele>
        <time>2009-09-13T18:44:59Z</time>
      </trkpt>
      <trkpt lat="50.48645" lon="2.56311">
        <ele>61.193401</ele>
        <time>2009-09-13T18:44:59Z</time>
      </trkpt>
      <trkpt lat="50.48654" lon="2.56396">
        <ele>59.765263</ele>
        <time>2009-09-13T18:44:59Z</time>
      </trkpt>
      <trkpt lat="50.48645" lon="2.56439">
        <ele>59.785</ele>
        <time>2009-09-13T18:44:59Z</time>
      </trkpt>
      <trkpt lat="50.48639" lon="2.56463">
        <ele>59.940342</ele>
        <time>2009-09-13T18:44:59Z</time>
      </trkpt>
      <trkpt lat="50.48631" lon="2.56542">
        <ele>60.689877</ele>
        <time>2009-09-13T18:44:59Z</time>
      </trkpt>
      <trkpt lat="50.48635" lon="2.56594">
        <ele>60.970001</ele>
        <time>2009-09-13T18:44:59Z</time>
      </trkpt>
      <trkpt lat="50.48632" lon="2.56644">
        <ele>61.126251</ele>
        <time>2009-09-13T18:44:59Z</time>
      </trkpt>
      <trkpt lat="50.48617" lon="2.56677">
        <ele>62.256248</ele>
        <time>2009-09-13T18:44:59Z</time>
      </trkpt>
      <trkpt lat="50.48598" lon="2.56693">
        <ele>63.334999</ele>
        <time>2009-09-13T18:44:59Z</time>
      </trkpt>
      <trkpt lat="50.48615" lon="2.56724">
        <ele>63.209999</ele>
        <time>2009-09-13T18:44:59Z</time>
      </trkpt>
      <trkpt lat="50.48632" lon="2.56741">
        <ele>62.932499</ele>
        <time>2009-09-13T18:44:59Z</time>
      </trkpt>
      <trkpt lat="50.48647" lon="2.56734">
        <ele>62.364998</ele>
        <time>2009-09-13T18:44:59Z</time>
      </trkpt>
      <trkpt lat="50.48706" lon="2.56694">
        <ele>60.142502</ele>
        <time>2009-09-13T18:44:59Z</time>
      </trkpt>
      <trkpt lat="50.48718" lon="2.56672">
        <ele>59.563751</ele>
        <time>2009-09-13T18:44:59Z</time>
      </trkpt>
      <trkpt lat="50.48737" lon="2.56642">
        <ele>59.021252</ele>
        <time>2009-09-13T18:44:59Z</time>
      </trkpt>
      <trkpt lat="50.48748" lon="2.56617">
        <ele>59</ele>
        <time>2009-09-13T18:44:59Z</time>
      </trkpt>
      <trkpt lat="50.4879" lon="2.56558">
        <ele>58.337498</ele>
        <time>2009-09-13T18:44:59Z</time>
      </trkpt>
      <trkpt lat="50.48809" lon="2.56565">
        <ele>58.01125</ele>
        <time>2009-09-13T18:44:59Z</time>
      </trkpt>
      <trkpt lat="50.48828" lon="2.56587">
        <ele>58.542889</ele>
        <time>2009-09-13T18:44:59Z</time>
      </trkpt>
      <trkpt lat="50.48849" lon="2.56592">
        <ele>58.847</ele>
        <time>2009-09-13T18:44:59Z</time>
      </trkpt>
      <trkpt lat="50.48884" lon="2.56585">
        <ele>58.603748</ele>
        <time>2009-09-13T18:44:59Z</time>
      </trkpt>
      <trkpt lat="50.48899" lon="2.5658">
        <ele>58.38625</ele>
        <time>2009-09-13T18:44:59Z</time>
      </trkpt>
      <trkpt lat="50.48921" lon="2.56579">
        <ele>58.291939</ele>
        <time>2009-09-13T18:44:59Z</time>
      </trkpt>
      <trkpt lat="50.48951" lon="2.5658">
        <ele>58.099998</ele>
        <time>2009-09-13T18:44:59Z</time>
      </trkpt>
      <trkpt lat="50.4897" lon="2.56579">
        <ele>57.220001</ele>
        <time>2009-09-13T18:44:59Z</time>
      </trkpt>
      <trkpt lat="50.48992" lon="2.56567">
        <ele>55.956875</ele>
        <time>2009-09-13T18:44:59Z</time>
      </trkpt>
      <trkpt lat="50.48988" lon="2.56541">
        <ele>55.725624</ele>
        <time>2009-09-13T18:44:59Z</time>
      </trkpt>
      <trkpt lat="50.48975" lon="2.5651">
        <ele>55.574608</ele>
        <time>2009-09-13T18:44:59Z</time>
      </trkpt>
      <trkpt lat="50.48971" lon="2.56481">
        <ele>55.63113</ele>
        <time>2009-09-13T18:44:59Z</time>
      </trkpt>
      <trkpt lat="50.48964" lon="2.56394">
        <ele>56.521252</ele>
        <time>2009-09-13T18:44:59Z</time>
      </trkpt>
      <trkpt lat="50.4895" lon="2.56282">
        <ele>58.107998</ele>
        <time>2009-09-13T18:44:59Z</time>
      </trkpt>
      <trkpt lat="50.48981" lon="2.56286">
        <ele>58.015526</ele>
        <time>2009-09-13T18:44:59Z</time>
      </trkpt>
      <trkpt lat="50.48997" lon="2.5632">
        <ele>57.523251</ele>
        <time>2009-09-13T18:44:59Z</time>
      </trkpt>
      <trkpt lat="50.49011" lon="2.56327">
        <ele>57.285751</ele>
        <time>2009-09-13T18:44:59Z</time>
      </trkpt>
      <trkpt lat="50.49035" lon="2.56288">
        <ele>57.125774</ele>
        <time>2009-09-13T18:44:59Z</time>
      </trkpt>
      <trkpt lat="50.49094" lon="2.56205">
        <ele>59.682499</ele>
        <time>2009-09-13T18:44:59Z</time>
      </trkpt>
      <trkpt lat="50.49104" lon="2.56185">
        <ele>60.4725</ele>
        <time>2009-09-13T18:44:59Z</time>
      </trkpt>
      <trkpt lat="50.49091" lon="2.5616">
        <ele>60.892502</ele>
        <time>2009-09-13T18:44:59Z</time>
      </trkpt>
      <trkpt lat="50.4907" lon="2.56126">
        <ele>61.289261</ele>
        <time>2009-09-13T18:44:59Z</time>
      </trkpt>
      <trkpt lat="50.49079" lon="2.56086">
        <ele>62.645714</ele>
        <time>2009-09-13T18:44:59Z</time>
      </trkpt>
      <trkpt lat="50.49097" lon="2.56055">
        <ele>64.32</ele>
        <time>2009-09-13T18:44:59Z</time>
      </trkpt>
      <trkpt lat="50.49132" lon="2.56002">
        <ele>67.479721</ele>
        <time>2009-09-13T18:44:59Z</time>
      </trkpt>
      <trkpt lat="50.49144" lon="2.55978">
        <ele>68.896942</ele>
        <time>2009-09-13T18:44:59Z</time>
      </trkpt>
      <trkpt lat="50.49168" lon="2.55881">
        <ele>71.809059</ele>
        <time>2009-09-13T18:44:59Z</time>
      </trkpt>
      <trkpt lat="50.49176" lon="2.55831">
        <ele>71.940002</ele>
        <time>2009-09-13T18:44:59Z</time>
      </trkpt>
      <trkpt lat="50.49174" lon="2.55803">
        <ele>71.985001</ele>
        <time>2009-09-13T18:44:59Z</time>
      </trkpt>
      <trkpt lat="50.49167" lon="2.55766">
        <ele>70.487274</ele>
        <time>2009-09-13T18:44:59Z</time>
      </trkpt>
      <trkpt lat="50.49155" lon="2.55758">
        <ele>70.810326</ele>
        <time>2009-09-13T18:44:59Z</time>
      </trkpt>
      <trkpt lat="50.49144" lon="2.55744">
        <ele>71.075333</ele>
        <time>2009-09-13T18:44:59Z</time>
      </trkpt>
      <trkpt lat="50.49131" lon="2.55733">
        <ele>71.860092</ele>
        <time>2009-09-13T18:44:59Z</time>
      </trkpt>
      <trkpt lat="50.49118" lon="2.55725">
        <ele>71.523453</ele>
        <time>2009-09-13T18:44:59Z</time>
      </trkpt>
      <trkpt lat="50.49104" lon="2.55713">
        <ele>70.140373</ele>
        <time>2009-09-13T18:44:59Z</time>
      </trkpt>
      <trkpt lat="50.4908" lon="2.55705">
        <ele>70.068428</ele>
        <time>2009-09-13T18:44:59Z</time>
      </trkpt>
      <trkpt lat="50.49064" lon="2.55713">
        <ele>70.664299</ele>
        <time>2009-09-13T18:44:59Z</time>
      </trkpt>
      <trkpt lat="50.49042" lon="2.5574">
        <ele>70.908409</ele>
        <time>2009-09-13T18:44:59Z</time>
      </trkpt>
      <trkpt lat="50.49012" lon="2.55758">
        <ele>67.827499</ele>
        <time>2009-09-13T18:44:59Z</time>
      </trkpt>
      <trkpt lat="50.48988" lon="2.55766">
        <ele>65.214973</ele>
        <time>2009-09-13T18:44:59Z</time>
      </trkpt>
      <trkpt lat="50.4897" lon="2.55757">
        <ele>62.618801</ele>
        <time>2009-09-13T18:44:59Z</time>
      </trkpt>
      <trkpt lat="50.48956" lon="2.55745">
        <ele>60.084999</ele>
        <time>2009-09-13T18:44:59Z</time>
      </trkpt>
      <trkpt lat="50.48951" lon="2.55661">
        <ele>51.86475</ele>
        <time>2009-09-13T18:44:59Z</time>
      </trkpt>
      <trkpt lat="50.48964" lon="2.5561">
        <ele>49.992252</ele>
        <time>2009-09-13T18:44:59Z</time>
      </trkpt>
      <trkpt lat="50.48989" lon="2.5556">
        <ele>50.466999</ele>
        <time>2009-09-13T18:44:59Z</time>
      </trkpt>
      <trkpt lat="50.49004" lon="2.5554">
        <ele>49.624908</ele>
        <time>2009-09-13T18:44:59Z</time>
      </trkpt>
      <trkpt lat="50.49015" lon="2.55529">
        <ele>48.7365</ele>
        <time>2009-09-13T18:44:59Z</time>
      </trkpt>
      <trkpt lat="50.49028" lon="2.55521">
        <ele>48.174999</ele>
        <time>2009-09-13T18:44:59Z</time>
      </trkpt>
      <trkpt lat="50.4905" lon="2.5552">
        <ele>48.267601</ele>
        <time>2009-09-13T18:44:59Z</time>
      </trkpt>
      <trkpt lat="50.49062" lon="2.55515">
        <ele>47.343887</ele>
        <time>2009-09-13T18:44:59Z</time>
      </trkpt>
      <trkpt lat="50.4907" lon="2.55537">
        <ele>50.149326</ele>
        <time>2009-09-13T18:44:59Z</time>
      </trkpt>
      <trkpt lat="50.49083" lon="2.55551">
        <ele>51.415031</ele>
        <time>2009-09-13T18:44:59Z</time>
      </trkpt>
      <trkpt lat="50.49099" lon="2.55561">
        <ele>50.991875</ele>
        <time>2009-09-13T18:44:59Z</time>
      </trkpt>
      <trkpt lat="50.49117" lon="2.55565">
        <ele>49.4156</ele>
        <time>2009-09-13T18:44:59Z</time>
      </trkpt>
      <trkpt lat="50.49129" lon="2.55574">
        <ele>48.830002</ele>
        <time>2009-09-13T18:44:59Z</time>
      </trkpt>
      <trkpt lat="50.4914" lon="2.55584">
        <ele>48.942501</ele>
        <time>2009-09-13T18:44:59Z</time>
      </trkpt>
      <trkpt lat="50.49153" lon="2.55584">
        <ele>48.072502</ele>
        <time>2009-09-13T18:44:59Z</time>
      </trkpt>
      <trkpt lat="50.49187" lon="2.55606">
        <ele>48.108669</ele>
        <time>2009-09-13T18:44:59Z</time>
      </trkpt>
      <trkpt lat="50.49229" lon="2.55631">
        <ele>46.968563</ele>
        <time>2009-09-13T18:44:59Z</time>
      </trkpt>
      <trkpt lat="50.49242" lon="2.55643">
        <ele>46.433594</ele>
        <time>2009-09-13T18:44:59Z</time>
      </trkpt>
      <trkpt lat="50.49252" lon="2.55635">
        <ele>44.450214</ele>
        <time>2009-09-13T18:44:59Z</time>
      </trkpt>
      <trkpt lat="50.49268" lon="2.5562">
        <ele>41.362461</ele>
        <time>2009-09-13T18:44:59Z</time>
      </trkpt>
      <trkpt lat="50.49291" lon="2.55612">
        <ele>39.172314</ele>
        <time>2009-09-13T18:44:59Z</time>
      </trkpt>
      <trkpt lat="50.49311" lon="2.55596">
        <ele>37.259724</ele>
        <time>2009-09-13T18:44:59Z</time>
      </trkpt>
      <trkpt lat="50.49324" lon="2.55584">
        <ele>36.587502</ele>
        <time>2009-09-13T18:44:59Z</time>
      </trkpt>
      <trkpt lat="50.49343" lon="2.5553">
        <ele>35.39875</ele>
        <time>2009-09-13T18:44:59Z</time>
      </trkpt>
      <trkpt lat="50.4936" lon="2.5547">
        <ele>35</ele>
        <time>2009-09-13T18:44:59Z</time>
      </trkpt>
      <trkpt lat="50.49374" lon="2.55416">
        <ele>35.455002</ele>
        <time>2009-09-13T18:44:59Z</time>
      </trkpt>
      <trkpt lat="50.49396" lon="2.55307">
        <ele>37.006248</ele>
        <time>2009-09-13T18:44:59Z</time>
      </trkpt>
      <trkpt lat="50.49413" lon="2.5523">
        <ele>38.10125</ele>
        <time>2009-09-13T18:44:59Z</time>
      </trkpt>
      <trkpt lat="50.4942" lon="2.55204">
        <ele>38.4725</ele>
        <time>2009-09-13T18:44:59Z</time>
      </trkpt>
      <trkpt lat="50.49414" lon="2.55183">
        <ele>38.77</ele>
        <time>2009-09-13T18:44:59Z</time>
      </trkpt>
      <trkpt lat="50.494" lon="2.55153">
        <ele>39.196251</ele>
        <time>2009-09-13T18:44:59Z</time>
      </trkpt>
      <trkpt lat="50.49385" lon="2.5515">
        <ele>39.237499</ele>
        <time>2009-09-13T18:44:59Z</time>
      </trkpt>
      <trkpt lat="50.49348" lon="2.55073">
        <ele>40.060001</ele>
        <time>2009-09-13T18:44:59Z</time>
      </trkpt>
      <trkpt lat="50.49329" lon="2.55044">
        <ele>39.62125</ele>
        <time>2009-09-13T18:44:59Z</time>
      </trkpt>
      <trkpt lat="50.49324" lon="2.55022">
        <ele>39.785774</ele>
        <time>2009-09-13T18:44:59Z</time>
      </trkpt>
      <trkpt lat="50.49335" lon="2.55017">
        <ele>40.383564</ele>
        <time>2009-09-13T18:44:59Z</time>
      </trkpt>
      <trkpt lat="50.49347" lon="2.55021">
        <ele>40.7724</ele>
        <time>2009-09-13T18:44:59Z</time>
      </trkpt>
      <trkpt lat="50.49367" lon="2.55014">
        <ele>41.121548</ele>
        <time>2009-09-13T18:44:59Z</time>
      </trkpt>
      <trkpt lat="50.4938" lon="2.54998">
        <ele>41.169468</ele>
        <time>2009-09-13T18:44:59Z</time>
      </trkpt>
      <trkpt lat="50.49401" lon="2.54989">
        <ele>40.955002</ele>
        <time>2009-09-13T18:44:59Z</time>
      </trkpt>
      <trkpt lat="50.49417" lon="2.55007">
        <ele>40.599998</ele>
        <time>2009-09-13T18:44:59Z</time>
      </trkpt>
      <trkpt lat="50.49422" lon="2.5503">
        <ele>40.458931</ele>
        <time>2009-09-13T18:44:59Z</time>
      </trkpt>
      <trkpt lat="50.49413" lon="2.55112">
        <ele>39.779999</ele>
        <time>2009-09-13T18:44:59Z</time>
      </trkpt>
      <trkpt lat="50.49421" lon="2.55139">
        <ele>39.396252</ele>
        <time>2009-09-13T18:44:59Z</time>
      </trkpt>
      <trkpt lat="50.49451" lon="2.55189">
        <ele>38.574062</ele>
        <time>2009-09-13T18:44:59Z</time>
      </trkpt>
      <trkpt lat="50.4953" lon="2.55283">
        <ele>37.024849</ele>
        <time>2009-09-13T18:44:59Z</time>
      </trkpt>
      <trkpt lat="50.49544" lon="2.55295">
        <ele>37.045326</ele>
        <time>2009-09-13T18:44:59Z</time>
      </trkpt>
      <trkpt lat="50.4955" lon="2.55281">
        <ele>37.144375</ele>
        <time>2009-09-13T18:44:59Z</time>
      </trkpt>
      <trkpt lat="50.49538" lon="2.55199">
        <ele>37.597248</ele>
        <time>2009-09-13T18:44:59Z</time>
      </trkpt>
      <trkpt lat="50.49528" lon="2.5512">
        <ele>38.672501</ele>
        <time>2009-09-13T18:44:59Z</time>
      </trkpt>
      <trkpt lat="50.49519" lon="2.55063">
        <ele>39.325687</ele>
        <time>2009-09-13T18:44:59Z</time>
      </trkpt>
      <trkpt lat="50.49526" lon="2.55048">
        <ele>39.577888</ele>
        <time>2009-09-13T18:44:59Z</time>
      </trkpt>
      <trkpt lat="50.49558" lon="2.5502">
        <ele>39.55125</ele>
        <time>2009-09-13T18:44:59Z</time>
      </trkpt>
      <trkpt lat="50.49591" lon="2.54998">
        <ele>39.526402</ele>
        <time>2009-09-13T18:44:59Z</time>
      </trkpt>
      <trkpt lat="50.49629" lon="2.5498">
        <ele>40.7575</ele>
        <time>2009-09-13T18:44:59Z</time>
      </trkpt>
      <trkpt lat="50.49656" lon="2.54986">
        <ele>42.488426</ele>
        <time>2009-09-13T18:44:59Z</time>
      </trkpt>
      <trkpt lat="50.49678" lon="2.54988">
        <ele>43.895</ele>
        <time>2009-09-13T18:44:59Z</time>
      </trkpt>
      <trkpt lat="50.49693" lon="2.54988">
        <ele>44.904999</ele>
        <time>2009-09-13T18:44:59Z</time>
      </trkpt>
      <trkpt lat="50.49729" lon="2.54976">
        <ele>47.639999</ele>
        <time>2009-09-13T18:44:59Z</time>
      </trkpt>
      <trkpt lat="50.49744" lon="2.54964">
        <ele>48.994999</ele>
        <time>2009-09-13T18:44:59Z</time>
      </trkpt>
      <trkpt lat="50.49777" lon="2.54932">
        <ele>53.171032</ele>
        <time>2009-09-13T18:44:59Z</time>
      </trkpt>
      <trkpt lat="50.49786" lon="2.54925">
        <ele>54.305782</ele>
        <time>2009-09-13T18:44:59Z</time>
      </trkpt>
      <trkpt lat="50.49794" lon="2.54913">
        <ele>55.901001</ele>
        <time>2009-09-13T18:44:59Z</time>
      </trkpt>
      <trkpt lat="50.49802" lon="2.54903">
        <ele>57.369499</ele>
        <time>2009-09-13T18:44:59Z</time>
      </trkpt>
      <trkpt lat="50.49832" lon="2.54859">
        <ele>62.964611</ele>
        <time>2009-09-13T18:44:59Z</time>
      </trkpt>
      <trkpt lat="50.49846" lon="2.54849">
        <ele>64.713203</ele>
        <time>2009-09-13T18:44:59Z</time>
      </trkpt>
      <trkpt lat="50.49862" lon="2.5484">
        <ele>66.142372</ele>
        <time>2009-09-13T18:44:59Z</time>
      </trkpt>
      <trkpt lat="50.49873" lon="2.54836">
        <ele>66.837303</ele>
        <time>2009-09-13T18:44:59Z</time>
      </trkpt>
      <trkpt lat="50.49882" lon="2.54831">
        <ele>67.5354</ele>
        <time>2009-09-13T18:44:59Z</time>
      </trkpt>
      <trkpt lat="50.4991" lon="2.54806">
        <ele>70.550835</ele>
        <time>2009-09-13T18:44:59Z</time>
      </trkpt>
      <trkpt lat="50.4992" lon="2.54785">
        <ele>72.728401</ele>
        <time>2009-09-13T18:44:59Z</time>
      </trkpt>
      <trkpt lat="50.49927" lon="2.54776">
        <ele>73.575096</ele>
        <time>2009-09-13T18:44:59Z</time>
      </trkpt>
      <trkpt lat="50.49945" lon="2.54763">
        <ele>74.714897</ele>
        <time>2009-09-13T18:44:59Z</time>
      </trkpt>
      <trkpt lat="50.49944" lon="2.54749">
        <ele>75.849846</ele>
        <time>2009-09-13T18:44:59Z</time>
      </trkpt>
      <trkpt lat="50.49945" lon="2.54733">
        <ele>76.805</ele>
        <time>2009-09-13T18:44:59Z</time>
      </trkpt>
      <trkpt lat="50.49954" lon="2.54706">
        <ele>78.339996</ele>
        <time>2009-09-13T18:44:59Z</time>
      </trkpt>
      <trkpt lat="50.4996" lon="2.54694">
        <ele>79.025002</ele>
        <time>2009-09-13T18:44:59Z</time>
      </trkpt>
      <trkpt lat="50.49968" lon="2.54683">
        <ele>79.654999</ele>
        <time>2009-09-13T18:44:59Z</time>
      </trkpt>
      <trkpt lat="50.49977" lon="2.54673">
        <ele>80.105186</ele>
        <time>2009-09-13T18:44:59Z</time>
      </trkpt>
      <trkpt lat="50.49989" lon="2.54656">
        <ele>80.639328</ele>
        <time>2009-09-13T18:44:59Z</time>
      </trkpt>
      <trkpt lat="50.50003" lon="2.5464">
        <ele>81.289314</ele>
        <time>2009-09-13T18:44:59Z</time>
      </trkpt>
      <trkpt lat="50.50017" lon="2.54616">
        <ele>82.397751</ele>
        <time>2009-09-13T18:44:59Z</time>
      </trkpt>
      <trkpt lat="50.50027" lon="2.54601">
        <ele>83.067497</ele>
        <time>2009-09-13T18:44:59Z</time>
      </trkpt>
      <trkpt lat="50.5004" lon="2.54584">
        <ele>83.324997</ele>
        <time>2009-09-13T18:44:59Z</time>
      </trkpt>
      <trkpt lat="50.50053" lon="2.5457">
        <ele>83.525002</ele>
        <time>2009-09-13T18:44:59Z</time>
      </trkpt>
      <trkpt lat="50.50087" lon="2.54544">
        <ele>83.609451</ele>
        <time>2009-09-13T18:44:59Z</time>
      </trkpt>
      <trkpt lat="50.50104" lon="2.54529">
        <ele>83.382317</ele>
        <time>2009-09-13T18:44:59Z</time>
      </trkpt>
      <trkpt lat="50.50116" lon="2.5452">
        <ele>83.266602</ele>
        <time>2009-09-13T18:44:59Z</time>
      </trkpt>
      <trkpt lat="50.50166" lon="2.54475">
        <ele>82.629875</ele>
        <time>2009-09-13T18:44:59Z</time>
      </trkpt>
      <trkpt lat="50.50209" lon="2.54455">
        <ele>83.337502</ele>
        <time>2009-09-13T18:44:59Z</time>
      </trkpt>
      <trkpt lat="50.50245" lon="2.54434">
        <ele>83.940002</ele>
        <time>2009-09-13T18:44:59Z</time>
      </trkpt>
      <trkpt lat="50.50252" lon="2.54427">
        <ele>84.139999</ele>
        <time>2009-09-13T18:44:59Z</time>
      </trkpt>
      <trkpt lat="50.50261" lon="2.54426">
        <ele>84.089073</ele>
        <time>2009-09-13T18:44:59Z</time>
      </trkpt>
      <trkpt lat="50.50283" lon="2.54411">
        <ele>84.459648</ele>
        <time>2009-09-13T18:44:59Z</time>
      </trkpt>
      <trkpt lat="50.50322" lon="2.54394">
        <ele>85.084999</ele>
        <time>2009-09-13T18:44:59Z</time>
      </trkpt>
      <trkpt lat="50.50359" lon="2.54391">
        <ele>85.175003</ele>
        <time>2009-09-13T18:44:59Z</time>
      </trkpt>
      <trkpt lat="50.50408" lon="2.54392">
        <ele>85.550827</ele>
        <time>2009-09-13T18:44:59Z</time>
      </trkpt>
      <trkpt lat="50.50424" lon="2.54391">
        <ele>85.856941</ele>
        <time>2009-09-13T18:44:59Z</time>
      </trkpt>
      <trkpt lat="50.50475" lon="2.54413">
        <ele>84.272278</ele>
        <time>2009-09-13T18:44:59Z</time>
      </trkpt>
      <trkpt lat="50.50485" lon="2.54421">
        <ele>83.898811</ele>
        <time>2009-09-13T18:44:59Z</time>
      </trkpt>
      <trkpt lat="50.50498" lon="2.54419">
        <ele>83.164871</ele>
        <time>2009-09-13T18:44:59Z</time>
      </trkpt>
      <trkpt lat="50.50506" lon="2.54422">
        <ele>82.829063</ele>
        <time>2009-09-13T18:44:59Z</time>
      </trkpt>
      <trkpt lat="50.50513" lon="2.54427">
        <ele>82.657303</ele>
        <time>2009-09-13T18:44:59Z</time>
      </trkpt>
      <trkpt lat="50.50526" lon="2.54427">
        <ele>81.958496</ele>
        <time>2009-09-13T18:44:59Z</time>
      </trkpt>
      <trkpt lat="50.50538" lon="2.54429">
        <ele>81.257225</ele>
        <time>2009-09-13T18:44:59Z</time>
      </trkpt>
      <trkpt lat="50.5055" lon="2.54429">
        <ele>80.493362</ele>
        <time>2009-09-13T18:44:59Z</time>
      </trkpt>
      <trkpt lat="50.50581" lon="2.54434">
        <ele>78.375748</ele>
        <time>2009-09-13T18:44:59Z</time>
      </trkpt>
      <trkpt lat="50.50614" lon="2.54428">
        <ele>75.559959</ele>
        <time>2009-09-13T18:44:59Z</time>
      </trkpt>
      <trkpt lat="50.50635" lon="2.5442">
        <ele>73.333862</ele>
        <time>2009-09-13T18:44:59Z</time>
      </trkpt>
      <trkpt lat="50.5067" lon="2.54404">
        <ele>70.246399</ele>
        <time>2009-09-13T18:44:59Z</time>
      </trkpt>
      <trkpt lat="50.50678" lon="2.54396">
        <ele>69.739998</ele>
        <time>2009-09-13T18:44:59Z</time>
      </trkpt>
      <trkpt lat="50.50731" lon="2.54364">
        <ele>66.950874</ele>
        <time>2009-09-13T18:44:59Z</time>
      </trkpt>
      <trkpt lat="50.50782" lon="2.54318">
        <ele>60.32225</ele>
        <time>2009-09-13T18:44:59Z</time>
      </trkpt>
      <trkpt lat="50.50824" lon="2.54304">
        <ele>56.688351</ele>
        <time>2009-09-13T18:44:59Z</time>
      </trkpt>
      <trkpt lat="50.5088" lon="2.54294">
        <ele>54.512524</ele>
        <time>2009-09-13T18:44:59Z</time>
      </trkpt>
      <trkpt lat="50.50938" lon="2.54293">
        <ele>52.400799</ele>
        <time>2009-09-13T18:44:59Z</time>
      </trkpt>
      <trkpt lat="50.51012" lon="2.54289">
        <ele>50.2925</ele>
        <time>2009-09-13T18:44:59Z</time>
      </trkpt>
      <trkpt lat="50.51048" lon="2.54294">
        <ele>47.063976</ele>
        <time>2009-09-13T18:44:59Z</time>
      </trkpt>
      <trkpt lat="50.51076" lon="2.543">
        <ele>44.730431</ele>
        <time>2009-09-13T18:44:59Z</time>
      </trkpt>
      <trkpt lat="50.51125" lon="2.54304">
        <ele>41.870499</ele>
        <time>2009-09-13T18:44:59Z</time>
      </trkpt>
      <trkpt lat="50.51159" lon="2.54305">
        <ele>41.884548</ele>
        <time>2009-09-13T18:44:59Z</time>
      </trkpt>
      <trkpt lat="50.51167" lon="2.54304">
        <ele>42.319527</ele>
        <time>2009-09-13T18:44:59Z</time>
      </trkpt>
      <trkpt lat="50.51197" lon="2.54283">
        <ele>41.638012</ele>
        <time>2009-09-13T18:44:59Z</time>
      </trkpt>
      <trkpt lat="50.51227" lon="2.54259">
        <ele>38.978401</ele>
        <time>2009-09-13T18:44:59Z</time>
      </trkpt>
      <trkpt lat="50.51263" lon="2.54234">
        <ele>37.534439</ele>
        <time>2009-09-13T18:44:59Z</time>
      </trkpt>
      <trkpt lat="50.51283" lon="2.54226">
        <ele>36.582127</ele>
        <time>2009-09-13T18:44:59Z</time>
      </trkpt>
      <trkpt lat="50.51336" lon="2.54227">
        <ele>35.859314</ele>
        <time>2009-09-13T18:44:59Z</time>
      </trkpt>
      <trkpt lat="50.51373" lon="2.54203">
        <ele>34.193501</ele>
        <time>2009-09-13T18:44:59Z</time>
      </trkpt>
      <trkpt lat="50.51392" lon="2.54186">
        <ele>33.5625</ele>
        <time>2009-09-13T18:44:59Z</time>
      </trkpt>
      <trkpt lat="50.51397" lon="2.54167">
        <ele>33.327076</ele>
        <time>2009-09-13T18:44:59Z</time>
      </trkpt>
      <trkpt lat="50.51388" lon="2.54153">
        <ele>33.325783</ele>
        <time>2009-09-13T18:44:59Z</time>
      </trkpt>
      <trkpt lat="50.51358" lon="2.54094">
        <ele>33.365002</ele>
        <time>2009-09-13T18:44:59Z</time>
      </trkpt>
      <trkpt lat="50.51356" lon="2.5407">
        <ele>33.41</ele>
        <time>2009-09-13T18:44:59Z</time>
      </trkpt>
      <trkpt lat="50.51365" lon="2.54018">
        <ele>33.209999</ele>
        <time>2009-09-13T18:44:59Z</time>
      </trkpt>
      <trkpt lat="50.51367" lon="2.53993">
        <ele>33.165001</ele>
        <time>2009-09-13T18:44:59Z</time>
      </trkpt>
      <trkpt lat="50.51372" lon="2.53968">
        <ele>33.055</ele>
        <time>2009-09-13T18:44:59Z</time>
      </trkpt>
      <trkpt lat="50.51361" lon="2.53949">
        <ele>33.299999</ele>
        <time>2009-09-13T18:44:59Z</time>
      </trkpt>
      <trkpt lat="50.51348" lon="2.5393">
        <ele>33.595001</ele>
        <time>2009-09-13T18:44:59Z</time>
      </trkpt>
      <trkpt lat="50.51338" lon="2.53919">
        <ele>33.814999</ele>
        <time>2009-09-13T18:44:59Z</time>
      </trkpt>
      <trkpt lat="50.51334" lon="2.53906">
        <ele>33.904999</ele>
        <time>2009-09-13T18:44:59Z</time>
      </trkpt>
      <trkpt lat="50.51335" lon="2.53906">
        <ele>33.884998</ele>
        <time>2009-09-13T18:44:59Z</time>
      </trkpt>
      <trkpt lat="50.51334" lon="2.53905">
        <ele>33.904999</ele>
        <time>2009-09-13T18:44:59Z</time>
      </trkpt>
      <trkpt lat="50.51334" lon="2.53903">
        <ele>33.904999</ele>
        <time>2009-09-13T18:44:59Z</time>
      </trkpt>
      <trkpt lat="50.51337" lon="2.53899">
        <ele>33.84</ele>
        <time>2009-09-13T18:44:59Z</time>
      </trkpt>
      <trkpt lat="50.51336" lon="2.53897">
        <ele>33.860001</ele>
        <time>2009-09-13T18:44:59Z</time>
      </trkpt>
      <trkpt lat="50.51333" lon="2.53905">
        <ele>33.93</ele>
        <time>2009-09-13T18:44:59Z</time>
      </trkpt>
      <trkpt lat="50.51332" lon="2.53905">
        <ele>33.950001</ele>
        <time>2009-09-13T18:44:59Z</time>
      </trkpt>
      <trkpt lat="50.51332" lon="2.53906">
        <ele>33.950001</ele>
        <time>2009-09-13T18:44:59Z</time>
      </trkpt>
      <trkpt lat="50.51332" lon="2.53905">
        <ele>33.950001</ele>
        <time>2009-09-13T18:44:59Z</time>
      </trkpt>
      <trkpt lat="50.51333" lon="2.53905">
        <ele>33.93</ele>
        <time>2009-09-13T18:44:59Z</time>
      </trkpt>
      <trkpt lat="50.51355" lon="2.53945">
        <ele>33.435001</ele>
        <time>2009-09-13T18:44:59Z</time>
      </trkpt>
    </trkseg>
  </trk>
</gpx>